<- Previous Day | Today | Next Day ->

All Data for 28 November 2021

 

Time A - D Temp A - D Dew Point A - D Humidity A - D Pressure A - D Wind A - D Wind Dir Gust A - D Rain Rate A - D Rain Total
00:00 4.4 3.1 91 1011.5 3.8 NE 9.2 0.0 0.0
00:01 4.4 3.1 91 1011.4 1.6 SE 9.2 0.0 0.0
00:02 4.4 3.1 91 1011.3 4.5 N 8.3 0.0 0.0
00:03 4.4 3.2 92 1011.6 3.8 E 7.6 0.0 0.0
00:04 4.4 3.2 92 1011.3 5.4 E 6.9 0.0 0.0
00:05 4.4 3.2 92 1011.5 5.4 E 6.0 0.0 0.0
00:06 4.4 3.2 92 1011.2 4.5 E 6.0 0.0 0.0
00:08 4.4 3.2 92 1011.3 5.4 N 5.4 0.0 0.0
00:09 4.4 3.2 92 1011.3 4.5 SE 5.4 0.0 0.0
00:10 4.4 3.2 92 1011.3 4.5 SE 5.4 0.0 0.0
00:11 4.4 3.2 92 1011.3 4.5 NE 5.4 0.0 0.0
00:12 4.4 3.2 92 1011.3 3.1 W 5.4 0.0 0.0
00:13 4.4 3.2 92 1011.2 3.1 NW 5.4 0.0 0.0
00:14 4.4 3.2 92 1011.2 3.8 NE 5.4 0.0 0.0
00:15 4.4 3.2 92 1011.2 3.1 N 5.4 0.0 0.0
00:16 4.4 3.2 92 1011.4 3.1 NE 5.4 0.0 0.0
00:17 4.4 3.2 92 1011.2 4.5 NE 5.4 0.0 0.0
00:18 4.4 3.2 92 1011.5 4.5 NE 4.5 0.0 0.0
00:19 4.4 3.2 92 1011.4 4.5 N 4.5 0.0 0.0
00:20 4.4 3.2 92 1011.4 4.5 NE 4.5 0.0 0.0
00:22 4.4 3.2 92 1011.4 5.4 NE 5.4 0.0 0.0
00:23 4.4 3.2 92 1011.6 5.4 NE 5.4 0.0 0.0
00:24 4.4 3.2 92 1011.5 5.4 NE 5.4 0.0 0.0
00:25 4.4 3.2 92 1011.6 11.4 WNW 11.4 0.0 0.0
00:26 4.4 3.2 92 1011.4 11.4 NE 11.4 0.0 0.0
00:27 4.3 3.1 92 1011.4 8.3 NE 11.4 0.0 0.0
00:28 4.3 3.1 92 1011.5 6.9 N 11.4 0.0 0.0
00:29 4.3 3.1 92 1011.5 4.5 NW 11.4 0.0 0.0
00:30 4.3 3.1 92 1011.6 4.5 N 11.4 0.0 0.0
00:31 4.2 3.0 92 1011.4 6.0 NE 11.4 0.0 0.0
00:32 4.2 3.0 92 1011.6 5.4 N 11.4 0.0 0.0
00:33 4.2 3.0 92 1011.6 5.4 N 11.4 0.0 0.0
00:34 4.2 3.0 92 1011.5 4.5 N 11.4 0.0 0.0
00:36 4.2 3.0 92 1011.5 3.8 N 11.4 0.0 0.0
00:37 4.1 2.9 92 1011.6 4.5 NW 8.3 0.0 0.0
00:38 4.1 2.9 92 1011.4 4.5 NW 6.0 0.0 0.0
00:39 4.1 2.9 92 1011.3 3.8 WNW 6.0 0.0 0.1
00:40 4.1 2.9 92 1011.3 3.8 NE 6.0 0.8 0.1
00:41 4.1 2.9 92 1011.5 3.8 NE 6.0 0.8 0.1
00:42 4.1 2.9 92 1011.3 3.1 N 6.0 0.8 0.1
00:43 4.1 2.9 92 1011.4 2.2 NE 5.4 0.8 0.1
00:44 4.1 2.9 92 1011.3 3.8 N 4.5 0.8 0.1
00:45 4.1 2.9 92 1011.2 3.1 NE 4.5 0.0 0.1
00:46 4.1 2.9 92 1011.3 2.2 NW 4.5 0.0 0.1
00:47 4.1 2.9 92 1011.2 1.6 NE 4.5 0.0 0.1
00:48 4.1 2.9 92 1011.4 1.6 NE 4.5 0.0 0.1
00:50 4.1 2.9 92 1011.2 5.4 NE 6.0 0.0 0.1
00:51 4.1 2.9 92 1011.3 3.8 N 6.0 0.0 0.1
00:52 4.1 2.9 92 1011.5 6.0 S 6.0 0.0 0.1
00:53 4.2 3.0 92 1011.4 7.6 NE 7.6 0.0 0.1
00:54 4.2 3.0 92 1011.5 8.3 N 8.3 0.8 0.1
00:55 4.2 3.0 92 1011.6 8.3 E 8.3 0.8 0.1
00:56 4.2 3.0 92 1011.4 6.9 NE 8.3 1.5 0.2
00:57 4.2 3.0 92 1011.8 7.6 N 8.3 1.5 0.2
00:58 4.2 3.0 92 1011.4 7.6 NE 8.3 1.5 0.3
00:59 4.2 3.0 92 1011.4 5.4 E 8.3 1.5 0.3
01:00 4.2 3.0 92 1011.4 5.4 E 8.3 1.5 0.3
01:01 4.2 3.0 92 1011.3 5.4 E 8.3 0.8 0.3
01:02 4.2 3.0 92 1011.3 5.4 E 8.3 0.8 0.3
01:04 4.2 3.0 92 1011.2 5.4 E 8.3 0.0 0.3
01:05 4.2 3.0 92 1011.3 5.4 E 8.3 0.0 0.3
01:06 4.2 3.0 92 1011.5 5.4 E 7.6 0.0 0.3
01:07 4.2 3.0 92 1011.3 5.4 E 7.6 0.0 0.3
01:08 4.2 3.0 92 1011.5 5.4 E 7.6 0.0 0.3
01:09 4.2 3.0 92 1011.4 3.1 NW 5.4 5.3 0.7
01:10 4.2 3.0 92 1011.4 3.1 E 5.4 5.3 0.8
01:11 4.2 3.0 92 1011.4 6.9 W 6.9 6.0 0.8
01:12 4.1 2.9 92 1011.3 2.2 NW 6.9 6.0 0.8
01:13 4.1 2.9 92 1011.3 2.2 N 6.9 6.0 0.8
01:14 4.1 2.9 92 1011.3 2.2 N 6.9 0.8 0.8
01:15 4.1 2.9 92 1011.3 3.1 E 6.9 0.8 0.8
01:16 4.1 2.9 92 1011.1 4.5 NE 6.9 0.0 0.8
01:18 4.2 3.0 92 1011.4 2.2 NW 6.9 0.0 0.8
01:19 4.2 3.0 92 1011.2 1.6 NE 6.9 0.0 0.8
01:20 4.2 3.0 92 1011.2 3.1 NW 6.9 0.0 0.8
01:21 4.2 3.0 92 1011.2 3.1 NE 6.9 0.0 0.8
01:22 4.2 3.0 92 1011.3 3.1 N 4.5 0.0 0.8
01:23 4.2 3.0 92 1011.3 3.8 N 4.5 0.0 0.8
01:24 4.2 3.0 92 1011.4 3.1 N 4.5 0.0 0.8
01:25 4.2 3.0 92 1011.4 2.2 NW 5.4 0.0 0.8
01:26 4.2 3.0 92 1011.3 4.5 NW 5.4 0.0 0.8
01:27 4.3 3.1 92 1011.3 7.6 N 7.6 0.0 0.8
01:28 4.3 3.1 92 1011.3 3.8 NE 7.6 0.0 0.8
01:29 4.3 3.1 92 1011.2 4.5 NE 7.6 0.0 0.8
01:30 4.3 3.1 92 1011.1 4.5 NE 7.6 0.0 0.8
01:32 4.3 3.1 92 1011.4 8.3 NE 8.3 0.8 0.8
01:33 4.4 3.2 92 1011.3 5.4 NE 8.3 0.8 0.8
01:34 4.4 3.4 93 1011.2 7.6 NE 8.3 0.8 0.8
01:35 4.4 3.4 93 1011.2 8.3 N 8.3 0.8 0.8
01:36 4.4 3.4 93 1011.3 9.8 NE 9.8 0.0 0.8
01:37 4.4 3.4 93 1011.2 6.9 E 9.8 0.8 0.9
01:38 4.4 3.4 93 1011.3 7.6 NW 9.8 0.8 0.9
01:39 4.4 3.4 93 1010.9 9.8 NE 9.8 0.8 0.9
01:40 4.3 3.3 93 1010.8 7.6 NE 9.8 0.8 0.9
01:41 4.3 3.3 93 1011.2 9.2 NE 9.8 0.8 0.9
01:42 4.3 3.3 93 1010.8 10.7 E 10.7 0.0 0.9
01:43 4.3 3.3 93 1011.1 9.2 NE 10.7 0.0 0.9
01:44 4.3 3.3 93 1011.2 6.9 N 10.7 0.8 0.9
01:46 4.3 3.3 93 1010.9 6.0 NNE 10.7 0.8 0.9
01:47 4.3 3.3 93 1011.0 7.6 E 10.7 0.8 0.9
01:48 4.3 3.3 93 1010.8 7.6 E 10.7 0.8 0.9
01:49 4.3 3.3 93 1010.9 3.8 N 10.7 0.0 0.9
01:50 4.3 3.3 93 1010.9 5.4 NE 10.7 0.0 0.9
01:51 4.2 3.2 93 1011.1 4.5 NE 10.7 0.0 0.9
01:52 4.3 3.3 93 1011.1 3.1 N 10.7 0.0 0.9
01:53 4.3 3.3 93 1011.1 3.8 N 9.2 0.0 0.9
01:54 4.2 3.2 93 1011.1 4.5 N 7.6 0.0 0.9
01:55 4.2 3.2 93 1011.0 5.4 N 7.6 0.0 0.9
01:56 4.2 3.2 93 1010.9 7.6 W 7.6 0.0 0.9
01:57 4.2 3.2 93 1011.1 5.4 NE 7.6 0.0 0.9
01:58 4.2 3.2 93 1010.9 5.4 NE 7.6 0.0 0.9
02:00 4.3 3.3 93 1011.0 9.8 NW 9.8 0.0 0.9
02:01 4.3 3.3 93 1011.3 8.3 W 9.8 0.0 0.9
02:02 4.3 3.3 93 1011.1 9.8 SW 9.8 0.0 0.9
02:03 4.3 3.3 93 1011.2 6.0 N 9.8 0.0 0.9
02:04 4.3 3.3 93 1011.2 11.4 NW 11.4 0.0 0.9
02:05 4.4 3.4 93 1011.2 15.2 NW 15.2 0.0 0.9
02:06 4.4 3.4 93 1011.2 12.1 N 15.2 0.0 1.0
02:07 4.5 3.5 93 1011.4 13.6 W 15.2 0.8 1.0
02:08 4.5 3.5 93 1011.4 9.2 NE 15.2 0.8 1.0
02:09 4.5 3.5 93 1011.5 6.0 NE 15.2 0.8 1.0
02:10 4.6 3.6 93 1011.5 6.9 NE 15.2 0.8 1.0
02:11 4.6 3.6 93 1011.5 6.9 NE 15.2 0.8 1.0
02:12 4.6 3.6 93 1011.5 4.5 NE 15.2 0.0 1.0
02:14 4.6 3.6 93 1011.4 8.3 N 15.2 0.0 1.0
02:15 4.6 3.6 93 1011.5 9.2 N 15.2 0.0 1.0
02:16 4.6 3.6 93 1011.4 6.0 NE 13.6 0.0 1.0
02:17 4.6 3.6 93 1011.3 5.4 NNE 13.6 0.0 1.0
02:18 4.6 3.6 93 1011.6 6.0 NE 11.4 0.0 1.0
02:19 4.6 3.6 93 1011.4 6.9 N 11.4 0.0 1.0
02:20 4.6 3.6 93 1011.3 6.0 N 11.4 0.0 1.0
02:21 4.6 3.6 93 1011.5 6.9 E 11.4 0.0 1.0
02:22 4.6 3.6 93 1011.4 6.9 E 11.4 0.0 1.0
02:23 4.5 3.5 93 1011.5 3.8 N 11.4 0.0 1.0
02:24 4.5 3.5 93 1011.3 3.1 NE 11.4 0.0 1.0
02:25 4.5 3.5 93 1011.4 3.8 N 11.4 0.0 1.0
02:26 4.5 3.3 92 1011.5 5.4 NE 11.4 0.0 1.0
02:28 4.5 3.3 92 1011.3 6.9 NE 6.9 0.0 1.0
02:29 4.5 3.3 92 1011.4 6.0 NE 6.9 0.0 1.0
02:30 4.5 3.3 92 1011.3 3.1 E 6.9 0.0 1.0
02:31 4.5 3.3 92 1011.3 3.8 NE 6.9 0.0 1.0
02:32 4.5 3.3 92 1011.4 6.0 N 6.9 0.0 1.0
02:33 4.5 3.3 92 1011.3 3.8 N 6.9 0.0 1.0
02:34 4.5 3.3 92 1011.3 3.1 NNW 6.9 0.0 1.0
02:35 4.5 3.3 92 1011.5 3.8 NW 6.9 0.0 1.0
02:36 4.5 3.3 92 1011.3 4.5 NW 6.9 0.0 1.0
02:37 4.5 3.3 92 1011.2 10.7 N 10.7 0.0 1.0
02:38 4.5 3.3 92 1011.2 10.7 N 10.7 0.0 1.0
02:39 4.5 3.3 92 1011.5 10.7 N 10.7 0.0 1.0
02:40 4.5 3.3 92 1011.1 6.9 NW 10.7 0.0 1.0
02:42 4.5 3.3 92 1011.1 6.9 NE 13.0 0.0 1.0
02:43 4.5 3.3 92 1011.3 5.4 N 13.0 0.0 1.0
02:44 4.5 3.3 92 1011.4 6.9 NW 13.0 0.0 1.0
02:45 4.5 3.3 92 1011.4 11.4 NW 13.0 0.0 1.0
02:46 4.6 3.4 92 1011.3 9.8 SE 13.0 0.0 1.0
02:47 4.6 3.4 92 1011.0 8.3 N 13.0 0.0 1.0
02:48 4.6 3.4 92 1011.2 13.0 NW 13.0 0.0 1.0
02:49 4.7 3.5 92 1011.3 9.2 N 13.0 0.0 1.0
02:50 4.7 3.5 92 1011.1 6.9 N 13.0 0.0 1.0
02:51 4.7 3.5 92 1011.3 11.4 NW 13.0 0.0 1.0
02:52 4.8 3.6 92 1011.1 9.2 N 13.0 0.0 1.0
02:53 4.8 3.6 92 1011.1 4.5 S 13.0 0.0 1.0
02:54 4.8 3.5 91 1011.1 11.4 W 13.0 0.0 1.0
02:56 4.8 3.5 91 1011.2 8.3 E 13.0 0.0 1.0
02:57 4.8 3.5 91 1011.1 8.3 SW 13.0 0.0 1.0
02:58 4.9 3.6 91 1011.0 11.4 NW 12.1 0.0 1.0
02:59 4.9 3.6 91 1011.1 12.1 E 12.1 0.0 1.0
03:00 4.9 3.6 91 1011.3 10.7 SSE 12.1 0.0 1.0
03:01 4.9 3.6 91 1011.1 10.7 SSE 12.1 0.0 1.0
03:02 4.9 3.6 91 1011.1 10.7 SSE 12.1 0.0 1.0
03:03 4.9 3.6 91 1010.9 10.7 SSE 12.1 0.0 1.0
03:04 4.9 3.6 91 1011.1 10.7 SSE 12.1 0.0 1.0
03:05 4.9 3.6 91 1011.1 10.7 SSE 12.1 0.0 1.0
03:06 5.0 3.3 89 1011.2 5.4 W 12.1 0.0 1.0
03:07 5.0 3.3 89 1011.2 15.9 NNW 15.9 0.0 1.0
03:08 5.0 3.3 89 1010.9 15.9 NNW 15.9 0.0 1.0
03:10 5.0 3.3 89 1011.1 7.6 N 15.9 0.0 1.0
03:11 5.0 3.3 89 1011.1 7.6 N 15.9 0.0 1.0
03:12 5.1 3.4 89 1011.2 8.3 W 15.9 0.0 1.0
03:13 5.1 3.4 89 1011.1 13.6 N 15.9 0.0 1.0
03:14 5.1 3.4 89 1011.0 11.4 W 15.9 0.0 1.0
03:15 5.1 3.4 89 1011.1 11.4 W 15.9 0.0 1.0
03:16 5.1 3.4 89 1010.8 11.4 W 15.9 0.0 1.0
03:17 5.2 3.4 88 1010.9 10.7 N 15.9 0.0 1.0
03:18 5.2 3.2 87 1011.0 7.6 NE 15.9 0.0 1.0
03:19 5.2 3.2 87 1010.9 15.9 SW 21.3 0.0 1.1
03:20 5.3 3.3 87 1010.9 12.1 W 21.3 0.8 1.1
03:21 5.3 3.2 86 1010.8 12.1 NE 21.3 0.8 1.1
03:22 5.3 3.2 86 1011.1 9.2 NW 21.3 0.8 1.1
03:24 5.3 3.2 86 1011.1 10.7 N 21.3 0.8 1.1
03:25 5.3 3.0 85 1011.3 14.5 NW 21.3 0.0 1.1
03:26 5.3 3.0 85 1011.2 9.2 NW 21.3 0.0 1.1
03:27 5.3 3.0 85 1011.3 6.0 NW 21.3 0.0 1.1
03:28 5.3 3.0 85 1011.1 15.2 N 21.3 0.0 1.1
03:29 5.3 3.0 85 1011.3 9.2 N 21.3 0.0 1.1
03:30 5.3 3.0 85 1011.1 9.8 NW 15.2 0.0 1.1
03:31 5.3 2.8 84 1011.1 12.1 W 15.2 0.0 1.1
03:32 5.3 2.8 84 1011.0 10.7 NW 15.2 0.0 1.1
03:33 5.3 2.8 84 1011.2 10.7 NW 15.2 0.0 1.1
03:34 5.3 2.8 84 1011.1 10.7 E 15.2 0.0 1.1
03:35 5.3 2.8 84 1011.0 6.9 NW 15.2 0.0 1.1
03:36 5.3 2.8 84 1011.2 9.8 NW 15.2 0.0 1.1
03:38 5.3 2.6 83 1011.0 5.4 NW 12.1 0.0 1.1
03:39 5.3 2.6 83 1010.9 6.9 NW 12.1 0.0 1.1
03:40 5.3 2.6 83 1010.8 6.9 NW 12.1 0.0 1.1
03:41 5.3 2.6 83 1011.1 7.6 N 12.1 0.0 1.1
03:42 5.3 2.6 83 1011.0 9.2 N 10.7 0.0 1.1
03:43 5.3 2.6 83 1010.8 13.6 NW 13.6 0.0 1.1
03:44 5.3 2.6 83 1011.1 13.6 NW 13.6 0.0 1.1
03:45 5.3 2.6 83 1010.9 11.4 NE 13.6 0.0 1.1
03:46 5.3 2.6 83 1011.0 13.6 N 13.6 0.0 1.1
03:47 5.3 2.6 83 1010.9 9.2 WNW 13.6 0.0 1.1
03:48 5.3 2.6 83 1011.1 13.0 N 13.6 0.0 1.1
03:49 5.3 2.6 83 1011.0 9.8 NW 13.6 0.0 1.1
03:50 5.3 2.6 83 1011.0 11.4 NW 13.6 0.0 1.1
03:52 5.3 2.5 82 1011.0 9.2 NW 13.6 0.0 1.1
03:53 5.3 2.5 82 1010.9 8.3 NE 13.6 0.0 1.1
03:54 5.4 2.6 82 1011.0 6.0 N 13.6 0.0 1.1
03:55 5.4 2.6 82 1010.7 11.4 W 13.6 0.0 1.1
03:56 5.4 2.6 82 1010.9 9.2 NW 13.6 0.0 1.1
03:57 5.4 2.6 82 1010.8 6.9 NW 13.6 0.0 1.1
03:58 5.4 2.6 82 1010.8 7.6 NE 13.0 0.0 1.1
03:59 5.4 2.6 82 1010.8 9.8 NW 11.4 0.0 1.1
04:00 5.4 2.6 82 1010.9 11.4 N 11.4 0.0 1.1
04:01 5.4 2.6 82 1010.9 9.8 N 11.4 0.0 1.1
04:02 5.4 2.6 82 1010.9 6.0 NW 11.4 0.0 1.1
04:03 5.4 2.6 82 1010.8 13.6 NE 13.6 0.0 1.1
04:04 5.4 2.6 82 1010.9 15.9 NW 15.9 0.8 1.1
04:06 5.4 2.6 82 1011.0 10.7 W 15.9 0.8 1.1
04:07 5.4 2.6 82 1010.8 7.6 E 15.9 0.8 1.1
04:08 5.4 2.6 82 1011.1 8.3 NW 15.9 0.8 1.1
04:09 5.5 2.7 82 1010.9 17.4 NW 17.4 0.0 1.1
04:10 5.5 2.5 81 1010.9 8.3 N 17.4 0.0 1.1
04:11 5.5 2.5 81 1010.8 7.6 S 17.4 0.0 1.1
04:12 5.5 2.5 81 1010.9 7.6 E 17.4 0.0 1.1
04:13 5.5 2.5 81 1010.8 11.4 NW 17.4 0.0 1.1
04:14 5.5 2.5 81 1010.9 5.4 NW 17.4 0.0 1.1
04:15 5.5 2.5 81 1010.9 11.4 W 17.4 0.0 1.1
04:16 5.5 2.5 81 1010.9 12.1 W 17.4 0.0 1.1
04:17 5.5 2.5 81 1010.8 14.5 W 17.4 0.0 1.1
04:18 5.5 2.5 81 1011.0 11.4 NW 17.4 0.0 1.1
04:20 5.5 2.5 81 1011.0 13.6 N 14.5 0.0 1.1
04:21 5.5 2.5 81 1011.0 12.1 W 14.5 0.0 1.1
04:22 5.5 2.5 81 1011.0 8.3 SW 14.5 0.0 1.1
04:23 5.5 2.5 81 1010.9 7.6 N 14.5 0.0 1.1
04:24 5.5 2.5 81 1010.9 5.4 NW 14.5 0.0 1.1
04:25 5.5 2.5 81 1010.8 6.9 SW 14.5 0.0 1.1
04:26 5.5 2.5 81 1010.7 6.0 W 14.5 0.0 1.1
04:27 5.5 2.5 81 1010.8 6.9 N 14.5 0.0 1.1
04:28 5.4 2.4 81 1010.8 10.7 SE 13.6 0.0 1.1
04:29 5.4 2.4 81 1010.7 10.7 NW 13.6 0.0 1.1
04:30 5.4 2.4 81 1010.9 6.9 N 12.1 0.0 1.1
04:31 5.4 2.4 81 1010.6 10.7 SW 12.1 0.0 1.1
04:32 5.5 2.5 81 1010.7 7.6 N 10.7 0.0 1.1
04:34 5.5 2.5 81 1010.7 9.8 SE 10.7 0.0 1.1
04:35 5.5 2.5 81 1010.6 6.9 NW 10.7 0.0 1.1
04:36 5.5 2.5 81 1010.7 10.7 N 10.7 0.0 1.1
04:37 5.5 2.5 81 1010.9 13.0 W 13.0 0.0 1.1
04:38 5.5 2.5 81 1010.9 12.1 NW 13.0 0.0 1.1
04:39 5.5 2.5 81 1010.8 6.9 NE 13.0 0.0 1.1
04:40 5.5 2.5 81 1010.8 9.8 N 13.0 0.0 1.1
04:41 5.5 2.5 81 1010.7 15.2 W 15.2 0.0 1.1
04:42 5.5 2.5 81 1010.8 6.0 NW 15.2 0.0 1.1
04:43 5.5 2.5 81 1010.8 9.2 NW 15.2 0.0 1.1
04:44 5.5 2.5 81 1010.5 13.6 NW 15.2 0.0 1.1
04:45 5.5 2.3 80 1010.7 13.0 NW 15.2 0.0 1.1
04:46 5.5 2.3 80 1010.7 9.8 N 15.2 0.0 1.1
04:47 5.5 2.3 80 1010.8 8.3 W 15.2 0.0 1.1
04:49 5.5 2.3 80 1010.9 6.9 SW 15.2 0.0 1.1
04:50 5.5 2.3 80 1010.8 5.4 NW 15.2 0.0 1.1
04:51 5.5 2.3 80 1010.9 8.3 N 15.2 0.0 1.1
04:52 5.5 2.3 80 1010.7 8.3 NW 13.6 0.0 1.1
04:53 5.5 2.3 80 1010.7 8.3 NW 13.6 0.0 1.1
04:54 5.5 2.3 80 1010.9 12.1 W 13.6 0.0 1.1
04:55 5.5 2.3 80 1010.6 10.7 NW 13.0 0.0 1.1
04:56 5.5 2.3 80 1010.5 12.1 NNE 12.1 0.0 1.1
04:57 5.5 2.2 79 1010.4 15.2 W 15.2 0.0 1.1
04:58 5.5 2.2 79 1010.5 13.6 N 15.2 0.0 1.1
04:59 5.5 2.2 79 1010.6 10.7 WNW 15.2 0.0 1.1
05:00 5.5 2.2 79 1010.9 10.7 WNW 15.2 0.0 1.1
05:01 5.5 2.2 79 1010.7 10.7 WNW 15.2 0.0 1.1
05:03 5.5 2.2 79 1010.5 10.7 WNW 15.2 0.0 1.1
05:04 5.5 2.2 79 1010.9 10.7 WNW 15.2 0.0 1.1
05:05 5.5 2.2 79 1010.9 10.7 WNW 15.2 0.0 1.1
05:06 5.5 2.2 79 1010.9 11.4 NW 15.2 0.0 1.1
05:07 5.5 2.2 79 1010.8 10.7 W 15.2 0.0 1.1
05:08 5.5 2.2 79 1010.8 6.0 NW 13.6 0.0 1.1
05:09 5.5 2.2 79 1010.9 7.6 N 11.4 0.0 1.1
05:10 5.5 2.2 79 1010.9 7.6 NW 11.4 0.0 1.1
05:11 5.5 2.2 79 1010.8 9.2 N 11.4 0.0 1.1
05:12 5.5 2.2 79 1010.8 9.2 E 11.4 0.0 1.1
05:13 5.5 2.2 79 1010.8 6.0 NW 11.4 0.0 1.1
05:14 5.5 2.2 79 1010.8 8.3 W 11.4 0.0 1.1
05:16 5.5 2.2 79 1010.7 14.5 NE 14.5 0.0 1.1
05:17 5.5 2.2 79 1010.6 9.8 N 14.5 0.0 1.1
05:18 5.5 2.2 79 1010.7 10.7 N 14.5 0.0 1.1
05:19 5.5 2.2 79 1010.9 9.8 NW 14.5 0.0 1.1
05:20 5.5 2.2 79 1010.8 9.8 NW 14.5 0.0 1.1
05:21 5.5 2.0 78 1010.6 11.4 NE 14.5 0.0 1.1
05:22 5.5 2.0 78 1010.8 9.8 W 14.5 0.0 1.1
05:23 5.5 2.0 78 1010.6 5.4 W 14.5 0.0 1.1
05:24 5.5 2.0 78 1010.8 8.3 N 14.5 0.0 1.1
05:25 5.5 2.0 78 1010.7 5.4 N 14.5 0.0 1.1
05:26 5.5 2.0 78 1010.8 6.9 NW 14.5 0.0 1.1
05:27 5.5 2.0 78 1010.8 10.7 N 11.4 0.0 1.1
05:28 5.5 2.0 78 1010.7 10.7 W 11.4 0.0 1.1
05:29 5.5 2.0 78 1010.7 15.9 NW 15.9 0.0 1.1
05:31 5.5 2.0 78 1010.7 9.2 N 15.9 0.0 1.1
05:32 5.5 2.2 79 1010.8 9.8 N 15.9 0.0 1.1
05:33 5.5 2.2 79 1010.5 12.1 NW 15.9 0.0 1.1
05:34 5.5 2.2 79 1010.8 11.4 NW 15.9 0.0 1.1
05:35 5.5 2.2 79 1010.7 11.4 E 15.9 0.0 1.1
05:36 5.6 2.2 79 1010.7 11.4 NW 15.9 0.0 1.1
05:37 5.6 2.2 79 1010.7 9.2 N 15.9 0.0 1.1
05:38 5.6 2.1 78 1010.8 13.0 NW 15.9 0.0 1.1
05:39 5.6 2.1 78 1010.9 8.3 W 15.9 0.0 1.1
05:40 5.6 2.1 78 1010.6 7.6 N 13.0 0.0 1.1
05:41 5.6 2.1 78 1010.7 7.6 N 13.0 0.0 1.1
05:42 5.6 2.1 78 1010.7 9.2 S 13.0 0.0 1.1
05:44 5.6 2.1 78 1010.6 6.9 NW 13.0 0.0 1.1
05:45 5.6 2.1 78 1010.6 6.9 NW 13.0 0.0 1.1
05:46 5.6 2.1 78 1010.4 5.4 N 13.0 0.0 1.1
05:47 5.6 2.1 78 1010.6 12.1 NW 13.0 0.0 1.1
05:48 5.6 2.1 78 1010.5 12.1 W 13.0 0.0 1.1
05:49 5.6 2.1 78 1010.4 9.2 WNW 12.1 0.0 1.1
05:50 5.6 2.1 78 1010.5 13.0 W 13.0 0.0 1.1
05:51 5.6 2.1 78 1010.6 7.6 N 13.0 0.0 1.1
05:52 5.6 2.2 79 1010.6 12.1 WNW 13.0 0.0 1.1
05:53 5.6 2.2 79 1010.8 9.8 NE 13.0 0.0 1.1
05:54 5.6 2.2 79 1010.6 15.2 WNW 15.2 0.0 1.1
05:55 5.6 2.2 79 1010.7 12.1 N 15.2 0.0 1.1
05:56 5.7 2.3 79 1010.5 6.9 NW 15.2 0.0 1.1
05:57 5.7 2.3 79 1010.7 7.6 SE 15.2 0.0 1.1
05:59 5.7 2.3 79 1010.6 11.4 NW 15.2 0.0 1.1
06:00 5.7 2.3 79 1010.6 12.1 W 15.2 0.0 1.1
06:01 5.7 2.3 79 1010.5 8.3 NW 15.2 0.0 1.1
06:02 5.7 2.3 79 1010.7 6.9 SW 15.2 0.0 1.1
06:03 5.7 2.3 79 1010.7 6.0 NW 15.2 0.0 1.1
06:04 5.7 2.3 79 1010.4 6.9 NW 15.2 0.0 1.1
06:05 5.7 2.3 79 1010.7 9.8 NW 12.1 0.0 1.1
06:06 5.7 2.3 79 1010.7 8.3 N 12.1 0.0 1.1
06:07 5.7 2.3 79 1010.6 9.2 WNW 12.1 0.0 1.1
06:08 5.7 2.3 79 1010.6 7.6 NW 12.1 0.0 1.1
06:09 5.7 2.3 79 1010.6 15.2 NW 15.2 0.0 1.1
06:10 5.7 2.3 79 1010.4 7.6 NW 15.2 0.0 1.1
06:11 5.7 2.3 79 1010.5 8.3 NE 15.2 0.0 1.1
06:13 5.8 2.4 79 1010.4 5.4 NW 15.2 0.0 1.1
06:14 5.8 2.4 79 1010.7 11.4 NW 15.2 0.0 1.1
06:15 5.8 2.4 79 1010.8 11.4 NW 15.2 0.0 1.1
06:16 5.7 2.3 79 1010.8 8.3 NW 15.2 0.0 1.1
06:17 5.7 2.3 79 1010.7 12.1 N 15.2 0.0 1.1
06:18 5.7 2.3 79 1010.9 8.3 NW 15.2 0.0 1.1
06:19 5.7 2.3 79 1010.6 9.2 N 15.2 0.0 1.1
06:20 5.7 2.3 79 1010.5 6.9 SW 12.1 0.0 1.1
06:21 5.7 2.3 79 1010.7 9.8 NE 12.1 0.0 1.1
06:22 5.7 2.3 79 1010.6 9.8 NE 12.1 0.0 1.1
06:23 5.7 2.3 79 1010.7 9.8 W 12.1 0.0 1.1
06:24 5.7 2.3 79 1011.0 7.6 N 12.1 0.0 1.1
06:25 5.7 2.3 79 1010.8 4.5 NE 12.1 0.0 1.1
06:27 5.7 2.3 79 1010.6 9.2 WNW 12.1 0.0 1.1
06:28 5.8 2.4 79 1010.7 13.6 N 13.6 0.0 1.1
06:29 5.8 2.4 79 1010.8 13.0 N 13.6 0.0 1.1
06:30 5.8 2.4 79 1010.7 12.1 SE 13.6 0.0 1.1
06:31 5.8 2.4 79 1010.7 9.2 N 13.6 0.0 1.1
06:32 5.8 2.4 79 1010.6 8.3 NW 13.6 0.0 1.1
06:33 5.8 2.4 79 1010.6 10.7 W 13.6 0.0 1.1
06:34 5.8 2.4 79 1010.5 10.7 NW 13.6 0.0 1.1
06:35 5.8 2.4 79 1010.7 9.8 N 14.5 0.0 1.1
06:36 5.8 2.4 79 1010.5 10.7 N 14.5 0.0 1.1
06:37 5.8 2.4 79 1010.7 10.7 N 14.5 0.0 1.1
06:38 5.9 2.5 79 1010.6 12.1 NW 14.5 0.0 1.1
06:39 5.9 2.5 79 1010.6 13.0 NW 14.5 0.0 1.1
06:41 5.9 2.5 79 1010.7 13.0 W 14.5 0.0 1.1
06:42 5.8 2.4 79 1010.4 10.7 NW 14.5 0.0 1.1
06:43 5.9 2.5 79 1010.6 8.3 W 14.5 0.0 1.1
06:44 5.8 2.4 79 1010.8 12.1 NW 14.5 0.0 1.1
06:45 5.8 2.4 79 1010.8 11.4 NE 14.5 0.0 1.1
06:46 5.8 2.4 79 1010.5 12.1 NW 13.0 0.0 1.1
06:47 5.7 2.2 78 1011.0 12.1 N 13.0 0.0 1.1
06:48 5.7 2.2 78 1011.1 7.6 NW 13.0 0.0 1.1
06:49 5.7 2.2 78 1010.8 10.7 SE 13.0 0.0 1.1
06:50 5.7 2.3 79 1011.0 10.7 NW 13.0 0.0 1.1
06:51 5.7 2.3 79 1010.6 10.7 N 13.0 0.0 1.1
06:52 5.7 2.3 79 1010.6 10.7 NW 12.1 0.0 1.1
06:54 5.7 2.3 79 1010.7 6.9 SW 12.1 0.0 1.1
06:55 5.7 2.3 79 1010.7 7.6 NE 12.1 0.0 1.1
06:56 5.7 2.3 79 1010.6 11.4 N 12.1 0.0 1.1
06:57 5.7 2.3 79 1010.8 10.7 W 12.1 0.0 1.1
06:58 5.7 2.3 79 1010.5 10.7 W 11.4 0.0 1.1
06:59 5.7 2.3 79 1010.7 13.6 N 13.6 0.0 1.1
07:00 5.7 2.3 79 1010.7 4.5 N 13.6 0.0 1.1
07:01 5.7 2.3 79 1010.6 4.5 N 13.6 0.0 1.1
07:02 5.7 2.3 79 1010.7 4.5 N 13.6 0.0 1.1
07:03 5.7 2.3 79 1010.5 4.5 N 13.6 0.0 1.1
07:04 5.7 2.3 79 1010.8 4.5 N 13.6 0.0 1.1
07:05 5.7 2.3 79 1010.7 4.5 N 13.6 0.0 1.1
07:06 5.7 2.3 79 1010.6 4.5 N 13.6 0.0 1.1
07:07 5.8 2.4 79 1010.6 6.0 E 13.6 0.0 1.1
07:09 5.8 2.4 79 1010.6 9.2 NW 13.6 0.0 1.1
07:10 5.8 2.4 79 1010.7 9.2 N 12.1 0.0 1.1
07:11 5.8 2.4 79 1010.8 9.2 N 12.1 0.0 1.1
07:12 5.8 2.4 79 1010.7 12.1 NW 12.1 0.0 1.1
07:13 5.8 2.4 79 1010.8 14.5 E 19.0 0.0 1.1
07:14 5.8 2.4 79 1010.9 9.2 ESE 19.0 0.0 1.1
07:15 5.8 2.4 79 1010.7 7.6 SW 19.0 0.0 1.1
07:16 5.9 2.5 79 1010.9 15.2 NW 19.0 0.0 1.1
07:17 5.8 2.4 79 1010.8 8.3 NW 19.0 0.0 1.1
07:18 5.9 2.5 79 1010.6 6.9 NW 19.0 0.0 1.1
07:19 5.9 2.5 79 1010.6 7.6 NW 19.0 0.0 1.1
07:20 5.8 2.4 79 1010.7 11.4 W 19.0 0.0 1.1
07:23 5.9 2.5 79 1010.5 6.0 NW 15.2 0.0 1.1
07:24 5.9 2.5 79 1010.6 10.7 NE 15.2 0.0 1.1
07:25 5.9 2.5 79 1010.5 13.0 W 15.2 0.0 1.1
07:26 5.9 2.5 79 1010.4 8.3 N 15.2 0.0 1.1
07:27 5.9 2.5 79 1010.4 9.2 N 14.5 0.0 1.1
07:28 5.9 2.5 79 1010.8 9.8 SE 14.5 0.0 1.1
07:29 5.9 2.5 79 1010.8 12.1 N 14.5 0.0 1.1
07:30 5.9 2.5 79 1010.5 10.7 N 14.5 0.0 1.1
07:31 5.9 2.5 79 1010.7 11.4 NE 14.5 0.0 1.1
07:32 5.9 2.5 79 1010.6 7.6 NW 13.0 0.0 1.1
07:33 5.9 2.5 79 1010.5 7.6 NE 13.0 0.0 1.1
07:34 5.9 2.5 79 1010.6 6.0 N 13.0 0.0 1.1
07:35 5.9 2.5 79 1010.7 8.3 NE 13.0 0.0 1.1
07:37 5.9 2.5 79 1010.8 7.6 N 12.1 0.0 1.1
07:38 5.9 2.5 79 1010.6 7.6 NE 12.1 0.0 1.1
07:39 5.9 2.5 79 1010.6 9.2 NE 12.1 0.0 1.1
07:40 5.9 2.5 79 1010.8 9.2 N 11.4 0.0 1.1
07:41 5.9 2.5 79 1010.6 8.3 SW 11.4 0.0 1.1
07:42 5.9 2.5 79 1010.5 8.3 SW 11.4 0.0 1.1
07:43 5.9 2.5 79 1010.6 9.8 N 9.8 0.0 1.1
07:44 5.9 2.5 79 1010.7 7.6 SW 9.8 0.0 1.1
07:45 5.9 2.5 79 1010.6 6.9 N 9.8 0.0 1.1
07:46 5.9 2.5 79 1010.6 6.0 N 9.8 0.0 1.1
07:47 5.9 2.5 79 1010.6 8.3 N 9.8 0.0 1.1
07:48 5.9 2.5 79 1010.5 6.9 W 9.8 0.0 1.1
07:49 5.9 2.5 79 1010.6 9.8 E 9.8 0.0 1.1
07:51 5.9 2.5 79 1010.5 14.5 NE 14.5 0.0 1.1
07:52 5.9 2.5 79 1010.5 9.2 NW 14.5 0.0 1.1
07:53 5.9 2.5 79 1010.5 11.4 NW 14.5 0.0 1.1
07:54 5.9 2.5 79 1010.7 9.2 NW 14.5 0.0 1.1
07:55 5.9 2.5 79 1010.4 6.0 NW 14.5 0.0 1.1
07:56 5.9 2.5 79 1010.3 9.8 NW 14.5 0.0 1.1
07:57 5.9 2.5 79 1010.6 12.1 N 14.5 0.0 1.1
07:58 5.9 2.5 79 1010.5 12.1 NW 14.5 0.0 1.1
07:59 6.0 2.6 79 1010.5 6.0 NE 14.5 0.0 1.1
08:00 6.0 2.6 79 1010.7 8.3 W 14.5 0.0 1.1
08:01 6.0 2.6 79 1010.7 8.3 W 12.1 0.0 1.1
08:02 6.0 2.6 79 1010.5 8.3 W 12.1 0.0 1.1
08:03 6.0 2.6 79 1010.6 6.0 W 12.1 0.0 1.1
08:05 6.0 2.6 79 1010.5 9.8 NW 12.1 0.0 1.1
08:06 6.0 2.6 79 1010.6 4.5 NW 12.1 0.0 1.1
08:07 6.0 2.6 79 1010.6 8.3 NW 12.1 0.0 1.1
08:08 6.0 2.6 79 1010.7 8.3 NW 12.1 0.0 1.1
08:09 6.0 2.6 79 1010.6 5.4 NW 9.8 0.0 1.1
08:10 6.0 2.6 79 1010.8 7.6 NW 9.8 0.0 1.1
08:11 6.0 2.6 79 1010.6 6.0 NW 9.8 0.0 1.1
08:12 6.0 2.6 79 1010.8 6.0 SE 9.8 0.0 1.1
08:13 6.0 2.6 79 1010.7 3.8 N 9.8 0.0 1.1
08:14 6.0 2.6 79 1010.7 6.0 SW 9.8 0.0 1.1
08:15 6.0 2.6 79 1010.7 4.5 N 9.8 0.0 1.1
08:16 6.0 2.6 79 1010.6 3.1 W 8.3 0.0 1.1
08:17 6.0 2.6 79 1010.9 6.0 N 8.3 0.0 1.1
08:19 6.0 2.6 79 1011.1 8.3 N 8.3 0.0 1.1
08:20 6.0 2.6 79 1011.0 8.3 SE 8.3 0.0 1.1
08:21 6.0 2.6 79 1011.0 4.5 SE 8.3 0.0 1.1
08:22 6.0 2.6 79 1011.0 8.3 NE 8.3 0.0 1.1
08:23 6.0 2.6 79 1011.0 9.2 E 9.2 0.0 1.1
08:24 6.0 2.6 79 1011.0 6.9 NW 9.2 0.0 1.1
08:25 6.0 2.6 79 1011.0 5.4 N 9.2 0.0 1.1
08:26 6.0 2.6 79 1010.9 5.4 E 9.2 0.0 1.1
08:27 6.0 2.6 79 1010.9 10.7 N 10.7 0.0 1.1
08:28 6.0 2.6 79 1010.8 10.7 SE 10.7 0.0 1.1
08:29 6.0 2.6 79 1011.0 5.4 SW 10.7 0.0 1.1
08:30 6.0 2.6 79 1011.0 6.9 N 10.7 0.0 1.1
08:31 6.0 2.6 79 1011.0 3.8 SW 10.7 0.0 1.1
08:33 6.0 2.6 79 1011.1 5.4 N 10.7 0.0 1.1
08:34 6.0 2.6 79 1011.3 3.8 W 10.7 0.0 1.1
08:35 6.0 2.6 79 1010.9 4.5 SW 10.7 0.0 1.1
08:36 6.0 2.6 79 1010.9 9.2 SE 10.7 0.0 1.1
08:37 6.0 2.6 79 1011.2 2.2 NW 10.7 0.0 1.1
08:38 6.0 2.6 79 1011.1 4.5 W 10.7 0.0 1.1
08:39 6.0 2.6 79 1011.2 10.7 N 10.7 0.0 1.1
08:40 6.0 2.6 79 1011.2 10.7 W 10.7 0.0 1.1
08:41 6.0 2.6 79 1011.2 6.9 S 10.7 0.0 1.1
08:42 6.1 2.7 79 1011.2 6.0 NE 10.7 0.0 1.1
08:43 6.1 2.7 79 1011.2 6.0 SW 10.7 0.0 1.1
08:44 6.1 2.7 79 1011.3 8.3 NW 10.7 0.0 1.1
08:45 6.1 2.7 79 1011.2 9.2 N 10.7 0.0 1.1
08:46 6.1 2.7 79 1011.2 14.5 N 14.5 0.0 1.1
08:48 6.1 2.7 79 1011.2 6.9 N 14.5 0.0 1.1
08:49 6.1 2.7 79 1010.8 6.0 W 14.5 0.0 1.1
08:50 6.1 2.7 79 1011.0 5.4 NW 14.5 0.0 1.1
08:51 6.2 2.8 79 1011.0 4.5 W 14.5 0.0 1.1
08:52 6.1 2.7 79 1011.1 6.9 NW 14.5 0.0 1.1
08:53 6.1 2.7 79 1011.1 3.8 N 14.5 0.0 1.1
08:54 6.2 2.8 79 1011.0 5.4 NW 14.5 0.0 1.1
08:55 6.1 2.7 79 1011.0 9.8 N 14.5 0.0 1.1
08:56 6.2 2.8 79 1011.1 9.8 W 14.5 0.0 1.1
08:57 6.2 2.8 79 1011.0 6.9 N 9.8 0.0 1.1
08:58 6.2 2.8 79 1011.1 6.9 NE 9.8 0.0 1.1
08:59 6.2 2.8 79 1011.0 4.5 E 9.8 0.0 1.1
09:00 6.2 2.8 79 1011.0 4.5 E 9.8 0.0 1.1
09:01 6.2 2.8 79 1010.8 4.5 E 9.8 0.0 1.1
09:03 6.2 2.8 79 1011.0 4.5 E 9.8 0.0 1.1
09:04 6.2 2.8 79 1010.9 4.5 E 9.8 0.0 1.1
09:05 6.2 2.8 79 1010.9 4.5 E 9.8 0.0 1.1
09:06 6.2 2.8 79 1011.0 4.5 E 9.8 0.0 1.1
09:07 6.2 2.8 79 1010.9 4.5 E 6.9 0.0 1.1
09:08 6.2 2.8 79 1011.0 6.0 NW 6.9 0.0 1.1
09:09 6.2 2.8 79 1011.1 6.0 SW 8.3 0.0 1.1
09:10 6.2 2.8 79 1011.2 4.5 N 8.3 0.0 1.1
09:11 6.2 2.8 79 1010.9 4.5 N 8.3 0.0 1.1
09:12 6.2 2.8 79 1010.9 4.5 W 8.3 0.0 1.1
09:13 6.2 2.8 79 1011.1 2.2 NNE 8.3 0.0 1.1
09:14 6.2 2.8 79 1011.2 3.8 N 8.3 0.0 1.1
09:15 6.2 2.8 79 1011.2 4.5 N 8.3 0.0 1.1
09:17 6.2 2.8 79 1011.0 4.5 NW 8.3 0.0 1.1
09:18 6.2 2.8 79 1011.1 9.2 NW 9.2 0.0 1.1
09:19 6.2 2.8 79 1011.1 9.2 NW 9.2 0.0 1.1
09:20 6.2 2.8 79 1010.7 7.6 NNW 9.2 0.0 1.1
09:21 6.2 2.8 79 1011.1 7.6 W 9.2 0.0 1.1
09:22 6.2 2.8 79 1011.1 3.8 N 9.2 0.0 1.1
09:23 6.2 2.8 79 1011.0 5.4 NW 9.2 0.0 1.1
09:24 6.2 2.8 79 1011.0 5.4 NE 9.2 0.0 1.1
09:25 6.2 2.8 79 1010.8 3.8 NW 9.2 0.0 1.1
09:26 6.2 2.8 79 1011.2 5.4 NW 9.2 0.0 1.1
09:27 6.2 2.8 79 1011.1 5.4 NW 9.2 0.0 1.1
09:28 6.2 2.8 79 1011.0 2.2 N 9.2 0.0 1.1
09:29 6.2 2.8 79 1011.0 6.0 SW 7.6 0.0 1.1
09:30 6.2 2.8 79 1011.0 6.0 N 7.6 0.0 1.1
09:32 6.2 2.8 79 1011.0 6.0 E 6.0 0.0 1.1
09:33 6.2 2.8 79 1011.0 8.3 W 8.3 0.0 1.1
09:34 6.2 2.8 79 1011.0 6.9 S 8.3 0.0 1.1
09:35 6.2 2.8 79 1011.1 3.8 NW 8.3 0.0 1.1
09:36 6.2 2.8 79 1011.1 5.4 NW 8.3 0.0 1.1
09:37 6.2 2.8 79 1010.9 4.5 W 10.7 0.0 1.1
09:38 6.2 2.8 79 1011.0 6.0 SE 10.7 0.0 1.1
09:39 6.2 2.8 79 1010.9 6.9 N 10.7 0.0 1.1
09:40 6.2 2.8 79 1010.9 6.9 W 10.7 0.0 1.1
09:41 6.2 2.8 79 1010.7 4.5 N 10.7 0.0 1.1
09:42 6.2 2.8 79 1010.7 7.6 NE 10.7 0.0 1.1
09:43 6.3 2.9 79 1010.9 3.1 N 10.7 0.0 1.1
09:44 6.3 2.9 79 1010.9 1.6 NE 10.7 0.0 1.1
09:46 6.3 2.9 79 1010.8 5.4 NW 10.7 0.0 1.1
09:47 6.3 2.9 79 1010.8 6.9 N 8.3 0.0 1.1
09:48 6.3 2.9 79 1011.0 6.9 NE 8.3 0.0 1.1
09:49 6.3 2.9 79 1010.8 9.2 N 9.2 0.0 1.1
09:50 6.3 2.9 79 1010.7 9.2 SE 9.2 0.0 1.1
09:51 6.3 2.9 79 1010.8 9.2 N 9.2 0.0 1.1
09:52 6.3 2.9 79 1010.8 7.6 W 9.2 0.0 1.1
09:53 6.3 2.9 79 1010.8 7.6 NW 9.2 0.0 1.1
09:54 6.3 2.9 79 1010.6 9.8 NW 9.8 0.0 1.1
09:55 6.3 2.9 79 1010.7 8.3 NW 9.8 0.0 1.1
09:56 6.3 2.9 79 1010.6 9.2 NW 9.8 0.0 1.1
09:57 6.3 2.9 79 1010.9 9.2 NW 9.8 0.0 1.1
09:58 6.3 2.9 79 1010.7 10.7 SE 10.7 0.0 1.1
10:00 6.3 2.9 79 1010.7 6.0 NW 10.7 0.0 1.1
10:01 6.3 2.9 79 1010.7 3.1 NW 10.7 0.0 1.2
10:02 6.3 2.9 79 1010.8 8.3 NW 10.7 0.8 1.2
10:03 6.3 2.9 79 1010.8 5.4 SW 10.7 0.8 1.2
10:04 6.3 2.9 79 1010.7 3.8 NE 10.7 0.8 1.2
10:05 6.3 3.1 80 1010.7 4.5 W 10.7 0.8 1.2
10:06 6.3 3.1 80 1010.8 3.1 NNE 10.7 0.8 1.2
10:07 6.3 3.1 80 1010.9 3.1 NE 10.7 0.0 1.2
10:08 6.2 3.0 80 1010.7 3.1 NW 8.3 0.0 1.2
10:09 6.2 3.0 80 1010.7 5.4 N 8.3 0.0 1.2
10:10 6.2 3.0 80 1010.8 5.4 N 8.3 0.0 1.2
10:11 6.2 3.0 80 1010.5 2.2 NW 8.3 0.0 1.2
10:12 6.2 3.0 80 1010.7 3.8 WNW 5.4 0.0 1.2
10:14 6.2 3.0 80 1010.6 2.2 NW 5.4 0.0 1.2
10:15 6.2 3.0 80 1010.7 3.1 NW 5.4 0.0 1.2
10:16 6.2 3.0 80 1010.8 3.1 NW 5.4 0.0 1.2
10:17 6.2 3.2 81 1010.6 4.5 NW 5.4 0.0 1.2
10:18 6.2 3.2 81 1010.8 4.5 N 5.4 0.0 1.2
10:19 6.2 3.2 81 1010.6 4.5 N 5.4 0.0 1.2
10:20 6.2 3.2 81 1010.7 4.5 NW 5.4 0.0 1.2
10:21 6.3 3.3 81 1010.8 4.5 W 5.4 0.0 1.2
10:22 6.3 3.3 81 1010.7 3.8 S 5.4 0.0 1.2
10:23 6.3 3.3 81 1010.5 6.9 NW 6.9 0.0 1.2
10:24 6.3 3.3 81 1010.5 7.6 NW 7.6 0.0 1.2
10:25 6.3 3.3 81 1010.6 5.4 N 7.6 0.0 1.2
10:26 6.3 3.3 81 1010.7 3.8 NW 7.6 0.0 1.2
10:28 6.3 3.3 81 1010.6 3.8 NW 7.6 0.0 1.2
10:29 6.3 3.3 81 1010.6 4.5 NW 7.6 0.0 1.2
10:30 6.3 3.3 81 1010.7 4.5 NE 7.6 0.0 1.2
10:31 6.3 3.3 81 1010.6 9.2 N 9.2 0.0 1.2
10:32 6.3 3.3 81 1010.7 9.2 N 9.2 0.0 1.2
10:33 6.3 3.3 81 1010.5 5.4 NW 9.2 0.0 1.2
10:34 6.3 3.3 81 1010.7 5.4 NW 9.2 0.0 1.2
10:35 6.3 3.3 81 1010.6 3.8 NW 9.2 0.0 1.2
10:36 6.4 3.4 81 1010.5 4.5 NW 9.2 0.0 1.2
10:37 6.4 3.4 81 1010.7 5.4 NW 9.2 0.0 1.2
10:38 6.4 3.4 81 1010.6 3.8 NW 9.2 0.0 1.2
10:39 6.4 3.4 81 1010.7 4.5 W 9.2 0.0 1.2
10:40 6.4 3.4 81 1010.9 3.8 W 9.2 0.0 1.2
10:42 6.4 3.4 81 1010.7 3.8 NW 9.2 0.0 1.2
10:43 6.4 3.4 81 1010.8 3.1 NW 5.4 0.0 1.2
10:44 6.5 3.5 81 1010.7 4.5 E 5.4 0.0 1.2
10:45 6.5 3.5 81 1010.7 7.6 W 7.6 0.0 1.2
10:46 6.5 3.5 81 1010.6 7.6 W 7.6 0.0 1.2
10:47 6.5 3.7 82 1010.6 3.1 NE 7.6 0.0 1.2
10:48 6.5 3.7 82 1010.8 5.4 NW 7.6 0.0 1.2
10:49 6.5 3.7 82 1010.5 5.4 NW 7.6 0.0 1.2
10:50 6.5 3.7 82 1010.7 5.4 NW 7.6 0.0 1.2
10:51 6.5 3.7 82 1010.7 5.4 NW 7.6 0.0 1.2
10:52 6.5 3.7 82 1010.6 3.1 SW 7.6 0.0 1.2
10:53 6.5 3.7 82 1010.6 2.2 W 7.6 0.0 1.2
10:54 6.5 3.7 82 1010.8 2.2 NW 7.6 0.0 1.2
10:56 6.5 3.7 82 1010.5 2.2 NW 7.6 0.0 1.2
10:57 6.5 3.7 82 1010.5 6.0 W 6.0 0.0 1.2
10:58 6.5 3.7 82 1010.7 5.4 N 6.0 0.0 1.2
10:59 6.5 3.7 82 1010.7 6.9 W 6.9 0.0 1.2
11:00 6.5 3.7 82 1010.7 7.6 W 7.6 0.0 1.2
11:01 6.5 3.7 82 1010.7 7.6 W 7.6 0.0 1.2
11:02 6.5 3.7 82 1010.6 4.5 NE 7.6 0.0 1.2
11:03 6.6 3.7 82 1010.4 3.8 NW 7.6 0.0 1.2
11:04 6.6 3.7 82 1010.6 3.1 NW 7.6 0.0 1.2
11:05 6.6 3.7 82 1010.7 4.5 W 7.6 0.0 1.2
11:06 6.6 3.7 82 1010.6 3.1 NW 7.6 0.0 1.2
11:07 6.6 3.7 82 1010.6 3.1 N 7.6 0.0 1.2
11:08 6.6 3.7 82 1010.4 4.5 N 7.6 0.0 1.2
11:10 6.6 3.7 82 1010.6 3.8 NW 7.6 0.0 1.2
11:11 6.6 3.7 82 1010.5 4.5 NW 7.6 0.0 1.2
11:12 6.6 3.7 82 1010.5 4.5 W 4.5 0.8 1.3
11:13 6.6 3.7 82 1010.6 3.8 NW 4.5 0.8 1.3
11:14 6.7 3.8 82 1010.4 3.8 NW 4.5 0.8 1.3
11:15 6.7 3.8 82 1010.4 3.1 W 4.5 0.8 1.3
11:16 6.7 3.8 82 1010.6 4.5 NW 4.5 0.8 1.3
11:17 6.7 3.8 82 1010.5 3.1 NW 4.5 0.0 1.3
11:18 6.7 3.8 82 1010.6 2.2 NW 4.5 0.0 1.3
11:19 6.7 3.8 82 1010.2 3.1 W 4.5 0.0 1.3
11:20 6.7 3.8 82 1010.2 3.1 NW 4.5 0.0 1.3
11:21 6.7 3.8 82 1010.4 3.8 NW 4.5 0.0 1.3
11:22 6.7 3.8 82 1010.4 2.2 NW 4.5 0.0 1.3
11:23 6.8 4.1 83 1010.6 4.5 W 4.5 0.0 1.3
11:26 6.8 4.1 83 1010.3 3.8 N 4.5 0.0 1.3
11:27 6.8 4.1 83 1010.4 3.8 NW 4.5 0.0 1.3
11:28 6.8 4.1 83 1010.4 3.8 W 4.5 0.0 1.3
11:29 6.8 4.1 83 1010.4 6.0 NW 6.0 0.0 1.3
11:30 6.9 4.2 83 1010.5 6.0 N 6.0 0.0 1.3
11:31 6.9 4.2 83 1010.3 4.5 W 6.0 0.0 1.3
11:32 6.9 4.2 83 1010.5 4.5 W 6.0 0.0 1.3
11:33 6.9 4.2 83 1010.1 5.4 N 6.0 0.0 1.3
11:34 6.9 4.2 83 1010.3 5.4 NW 6.0 0.0 1.3
11:35 6.9 4.2 83 1010.1 6.9 NW 6.9 0.0 1.3
11:36 6.9 4.2 83 1010.3 3.1 SW 6.9 0.0 1.3
11:37 6.9 4.4 84 1010.3 3.8 N 6.9 0.0 1.3
11:39 7.0 4.5 84 1010.1 5.4 NW 6.9 0.0 1.3
11:40 7.0 4.5 84 1010.1 5.4 NW 6.9 0.0 1.3
11:41 7.0 4.5 84 1010.4 6.9 NNE 6.9 0.0 1.3
11:42 7.0 4.5 84 1010.0 6.0 N 6.9 0.0 1.3
11:43 7.0 4.5 84 1010.3 5.4 W 6.9 0.0 1.3
11:44 7.0 4.5 84 1010.3 3.8 W 6.9 0.0 1.3
11:45 7.0 4.5 84 1010.4 6.0 SW 6.9 0.0 1.3
11:46 7.1 4.6 84 1010.2 4.5 W 6.9 0.0 1.3
11:47 7.1 4.6 84 1010.0 7.6 N 8.3 0.0 1.3
11:48 7.1 4.6 84 1010.3 5.4 W 8.3 0.0 1.3
11:49 7.1 4.6 84 1010.1 5.4 NW 8.3 0.0 1.3
11:50 7.1 4.6 84 1010.2 5.4 W 8.3 0.0 1.3
11:51 7.1 4.6 84 1010.1 3.8 N 8.3 0.0 1.3
11:52 7.1 4.6 84 1010.2 4.5 NW 8.3 0.0 1.3
11:54 7.1 4.8 85 1010.3 5.4 SW 8.3 0.0 1.3
11:55 7.1 4.8 85 1010.0 6.9 W 8.3 0.0 1.3
11:56 7.1 4.8 85 1010.1 6.0 NW 8.3 0.0 1.3
11:57 7.1 4.8 85 1010.0 3.1 WNW 8.3 0.0 1.3
11:58 7.1 4.8 85 1010.1 3.8 NE 6.9 0.0 1.3
11:59 7.1 4.8 85 1010.0 5.4 NW 6.9 0.0 1.3
12:00 7.1 4.8 85 1010.2 6.9 W 6.9 0.0 1.3
12:01 7.1 4.8 85 1009.9 6.9 W 6.9 0.0 1.3
12:02 7.1 4.8 85 1010.1 6.9 W 6.9 0.0 1.3
12:03 7.1 4.8 85 1010.2 6.9 W 6.9 0.0 1.3
12:04 7.1 4.8 85 1010.0 6.9 W 6.9 0.0 1.3
12:05 7.1 4.8 85 1010.0 5.4 NW 6.9 0.0 1.3
12:06 7.1 4.8 85 1010.0 5.4 W 6.9 0.0 1.3
12:08 7.0 4.7 85 1010.1 5.4 N 6.9 0.0 1.3
12:09 7.0 4.7 85 1010.0 6.0 N 6.9 0.0 1.3
12:10 7.0 4.7 85 1010.0 3.8 SW 6.9 0.0 1.3
12:11 7.0 4.7 85 1009.9 3.1 SW 6.9 0.0 1.3
12:12 7.0 4.7 85 1009.9 4.5 N 6.9 0.0 1.3
12:13 7.0 4.7 85 1009.9 4.5 W 6.9 0.0 1.3
12:14 7.0 4.7 85 1009.9 3.1 NW 6.9 0.0 1.3
12:15 7.0 4.7 85 1009.7 3.8 N 6.0 0.0 1.3
12:16 7.0 4.7 85 1010.0 6.0 N 6.0 0.0 1.3
12:17 7.0 4.7 85 1009.9 6.0 W 6.0 0.0 1.3
12:18 7.0 4.7 85 1010.0 3.1 W 6.0 0.0 1.3
12:19 7.0 4.7 85 1009.9 4.5 W 6.0 0.0 1.3
12:20 7.0 4.7 85 1009.9 3.1 NW 6.0 0.8 1.3
12:22 7.0 4.8 86 1010.0 4.5 W 6.0 0.8 1.3
12:23 7.0 4.8 86 1009.8 6.9 NW 6.9 0.8 1.3
12:24 7.1 4.9 86 1010.0 6.9 SW 6.9 0.8 1.3
12:25 7.1 4.9 86 1009.7 4.5 SW 6.9 0.0 1.3
12:26 7.1 4.9 86 1009.6 6.0 SW 6.9 0.0 1.3
12:27 7.1 4.9 86 1009.9 6.9 SW 6.9 0.0 1.3
12:28 7.1 5.1 87 1009.7 6.9 W 6.9 0.0 1.3
12:29 7.1 5.1 87 1009.5 6.0 W 6.9 0.0 1.3
12:30 7.1 5.1 87 1009.8 6.0 W 6.9 0.0 1.3
12:31 7.1 5.1 87 1009.6 7.6 WNW 7.6 0.0 1.4
12:32 7.1 5.1 87 1009.5 6.9 W 7.6 0.8 1.4
12:33 7.1 5.1 87 1009.7 6.9 W 7.6 0.8 1.4
12:34 7.2 5.3 88 1009.6 9.2 W 9.2 0.8 1.4
12:35 7.2 5.3 88 1009.5 4.5 NW 9.2 0.8 1.4
12:36 7.2 5.3 88 1009.4 7.6 NW 9.2 0.8 1.4
12:38 7.2 5.3 88 1009.6 4.5 W 9.2 0.0 1.4
12:39 7.2 5.3 88 1009.4 6.0 NW 9.2 0.0 1.4
12:40 7.2 5.3 88 1009.5 6.0 NW 9.2 0.0 1.4
12:41 7.2 5.3 88 1009.4 3.8 E 9.2 0.0 1.4
12:42 7.3 5.4 88 1009.5 6.9 SW 9.2 0.0 1.4
12:43 7.3 5.4 88 1009.5 5.4 W 9.2 0.0 1.4
12:44 7.3 5.4 88 1009.5 5.4 NW 9.2 0.0 1.4
12:45 7.3 5.4 88 1009.5 5.4 N 7.6 0.0 1.4
12:46 7.3 5.4 88 1009.4 5.4 W 7.6 0.0 1.4
12:47 7.3 5.4 88 1009.4 3.1 NW 6.9 0.0 1.4
12:48 7.3 5.4 88 1009.5 3.1 N 6.9 0.0 1.4
12:49 7.3 5.4 88 1009.5 2.2 W 6.9 0.0 1.4
12:50 7.3 5.4 88 1009.5 3.8 NW 6.9 0.0 1.4
12:52 7.4 5.5 88 1009.3 5.4 W 6.9 0.0 1.4
12:53 7.4 5.5 88 1009.3 3.1 W 6.9 0.0 1.4
12:54 7.4 5.5 88 1009.3 3.8 NW 6.9 0.0 1.4
12:55 7.4 5.5 88 1009.5 3.1 NW 6.9 0.0 1.4
12:56 7.4 5.5 88 1009.3 3.8 W 6.9 0.0 1.4
12:57 7.4 5.5 88 1009.4 3.8 NW 6.9 0.0 1.4
12:58 7.4 5.5 88 1009.4 3.1 N 6.9 0.0 1.4
12:59 7.4 5.5 88 1009.6 4.5 W 6.9 0.0 1.4
13:00 7.4 5.5 88 1009.2 4.5 NW 6.9 0.0 1.4
13:01 7.4 5.5 88 1009.4 4.5 NW 6.9 0.0 1.4
13:02 7.4 5.5 88 1009.3 4.5 NW 6.9 0.0 1.4
13:03 7.4 5.5 88 1009.3 4.5 NW 4.5 0.0 1.4
13:04 7.4 5.5 88 1009.3 4.5 NW 4.5 0.0 1.4
13:06 7.4 5.5 88 1009.3 4.5 NW 4.5 0.0 1.4
13:07 7.4 5.5 88 1009.4 4.5 NW 4.5 0.0 1.4
13:08 7.4 5.5 88 1009.4 3.8 W 4.5 0.0 1.4
13:09 7.4 5.5 88 1009.3 5.4 W 5.4 0.0 1.4
13:10 7.4 5.5 88 1009.4 5.4 W 5.4 0.0 1.4
13:11 7.4 5.5 88 1009.4 3.8 W 5.4 0.0 1.4
13:12 7.4 5.5 88 1009.3 5.4 W 5.4 0.0 1.4
13:13 7.4 5.5 88 1009.2 4.5 W 8.3 0.0 1.4
13:14 7.4 5.5 88 1009.2 5.4 SW 8.3 0.0 1.4
13:15 7.4 5.5 88 1009.0 4.5 WSW 8.3 0.0 1.4
13:16 7.3 5.4 88 1009.2 3.1 W 8.3 0.0 1.4
13:17 7.3 5.4 88 1009.2 3.8 WNW 8.3 0.0 1.4
13:18 7.3 5.4 88 1009.2 4.5 W 8.3 0.0 1.4
13:19 7.3 5.4 88 1009.2 6.0 NW 8.3 0.0 1.4
13:20 7.4 5.5 88 1009.2 5.4 W 8.3 0.0 1.4
13:22 7.4 5.5 88 1009.2 6.0 W 8.3 0.0 1.4
13:23 7.4 5.5 88 1009.3 6.0 W 6.0 0.0 1.4
13:24 7.4 5.5 88 1009.0 3.8 W 6.0 0.0 1.4
13:25 7.4 5.5 88 1009.2 6.0 W 6.0 0.0 1.4
13:26 7.4 5.5 88 1009.0 6.0 NW 6.0 0.0 1.4
13:27 7.4 5.5 88 1009.0 7.6 NW 7.6 0.0 1.4
13:28 7.4 5.5 88 1009.2 7.6 W 7.6 0.0 1.4
13:29 7.4 5.5 88 1009.1 6.0 W 8.3 0.0 1.4
13:30 7.4 5.5 88 1009.2 5.4 NW 8.3 0.0 1.4
13:31 7.4 5.5 88 1009.1 4.5 W 8.3 0.0 1.4
13:32 7.4 5.5 88 1009.1 4.5 W 8.3 0.0 1.4
13:33 7.4 5.5 88 1009.0 4.5 W 8.3 0.0 1.4
13:34 7.4 5.5 88 1008.9 4.5 W 8.3 0.0 1.4
13:35 7.4 5.4 87 1009.1 6.9 NW 8.3 0.0 1.4
13:37 7.4 5.4 87 1009.0 4.5 W 8.3 0.0 1.4
13:38 7.4 5.4 87 1009.1 4.5 W 8.3 0.0 1.4
13:39 7.4 5.4 87 1008.8 4.5 W 6.9 0.0 1.4
13:40 7.4 5.4 87 1009.1 5.4 S 6.9 0.0 1.4
13:41 7.4 5.4 87 1009.0 5.4 W 6.9 0.0 1.4
13:42 7.4 5.4 87 1008.9 6.0 W 6.9 0.0 1.4
13:43 7.4 5.4 87 1008.8 6.0 W 6.9 0.0 1.4
13:44 7.4 5.4 87 1008.8 5.4 W 6.9 0.0 1.4
13:45 7.4 5.4 87 1009.1 4.5 N 6.9 0.0 1.4
13:46 7.4 5.4 87 1008.9 4.5 N 6.9 0.0 1.4
13:47 7.4 5.4 87 1008.9 5.4 W 6.9 0.0 1.4
13:48 7.4 5.4 87 1008.9 3.8 SW 6.9 0.0 1.4
13:49 7.5 4.5 81 1008.8 4.5 SW 6.9 0.0 1.4
13:50 7.5 4.5 81 1009.0 4.5 W 6.9 0.0 1.4
13:52 7.5 4.5 81 1008.9 3.1 W 6.9 0.0 1.4
13:53 7.5 4.5 81 1008.9 3.8 NW 6.9 0.0 1.4
13:54 7.5 4.5 81 1008.7 8.3 W 8.3 0.0 1.4
13:55 7.5 4.5 81 1008.8 7.6 W 8.3 0.0 1.4
13:56 7.6 4.6 81 1008.7 7.6 SW 8.3 0.0 1.4
13:57 7.6 4.6 81 1008.8 6.0 WNW 8.3 0.0 1.4
13:58 7.6 4.6 81 1008.7 7.6 W 8.3 0.0 1.4
13:59 7.6 4.6 81 1008.6 5.4 W 8.3 0.0 1.4
14:00 7.6 4.6 81 1009.0 5.4 W 8.3 0.0 1.4
14:01 7.7 4.6 81 1008.7 9.2 W 9.2 0.0 1.4
14:02 7.7 4.6 81 1008.8 9.2 W 9.2 0.0 1.4
14:03 7.7 4.6 81 1008.9 5.4 W 9.2 0.0 1.4
14:04 7.7 4.6 81 1008.9 5.4 W 9.2 0.0 1.4
14:05 7.7 4.6 81 1008.8 5.4 SW 9.2 0.0 1.4
14:07 7.7 4.6 81 1008.7 4.5 NW 9.2 0.0 1.4
14:08 7.7 4.6 81 1008.6 5.4 NW 9.2 0.0 1.4
14:09 7.7 4.6 81 1008.6 4.5 SW 9.2 0.0 1.4
14:10 7.7 4.6 81 1008.8 6.0 SW 9.2 0.0 1.4
14:11 7.7 4.6 81 1008.7 6.0 W 9.2 0.0 1.4
14:12 7.7 4.6 81 1008.7 8.3 SW 9.2 0.0 1.4
14:13 7.7 4.6 81 1008.7 9.2 W 9.2 0.0 1.4
14:14 7.7 4.6 81 1008.6 6.9 SW 9.2 0.0 1.4
14:15 7.7 4.6 81 1008.6 7.6 SW 9.2 0.0 1.4
14:16 7.7 4.6 81 1008.6 8.3 WNW 9.2 0.0 1.4
14:17 7.7 4.6 81 1008.6 8.3 W 9.2 0.0 1.4
14:18 7.6 4.6 81 1008.7 7.6 W 9.2 0.0 1.4
14:19 7.6 4.6 81 1008.6 6.0 W 9.2 0.0 1.4
14:20 7.6 4.6 81 1008.8 6.9 W 9.2 0.0 1.4
14:22 7.6 4.6 81 1008.9 6.0 W 9.2 0.0 1.4
14:23 7.6 4.6 81 1008.5 7.6 W 9.2 0.0 1.4
14:24 7.6 4.6 81 1008.6 6.9 SW 8.3 0.0 1.4
14:25 7.6 4.6 81 1008.5 5.4 W 8.3 0.0 1.4
14:26 7.6 4.6 81 1008.8 6.0 W 8.3 0.0 1.4
14:27 7.6 4.6 81 1008.7 5.4 NW 8.3 0.0 1.4
14:28 7.6 4.6 81 1008.7 4.5 W 7.6 0.0 1.4
14:29 7.6 4.6 81 1008.7 5.4 NW 7.6 0.0 1.4
14:30 7.6 4.6 81 1008.7 6.9 SW 7.6 0.0 1.4
14:31 7.6 4.6 81 1008.5 6.0 W 7.6 0.0 1.4
14:32 7.7 4.6 81 1008.5 8.3 W 8.3 0.0 1.4
14:33 7.7 4.6 81 1008.6 8.3 SW 8.3 0.0 1.4
14:34 7.7 4.6 81 1008.5 6.0 W 8.3 0.0 1.4
14:35 7.7 4.6 81 1008.6 7.6 W 8.3 0.0 1.4
14:36 7.7 4.6 81 1008.6 9.2 WNW 9.2 0.0 1.4
14:38 7.6 4.6 81 1008.5 9.2 W 9.2 0.0 1.4
14:39 7.6 4.6 81 1008.6 6.9 W 9.2 0.0 1.4
14:40 7.6 4.6 81 1008.4 6.0 W 9.2 0.0 1.4
14:41 7.6 4.6 81 1008.5 3.8 W 9.2 0.0 1.4
14:42 7.6 4.6 81 1008.6 5.4 W 9.2 0.0 1.4
14:43 7.6 4.6 81 1008.4 6.0 SW 9.2 0.0 1.4
14:44 7.6 4.6 81 1008.6 8.3 SW 9.2 0.0 1.4
14:45 7.6 4.6 81 1008.6 6.0 W 9.2 0.0 1.4
14:46 7.6 4.6 81 1008.5 6.0 W 9.2 0.0 1.4
14:47 7.6 4.6 81 1008.4 6.0 SW 9.2 0.0 1.4
14:48 7.6 4.6 81 1008.5 7.6 W 8.3 0.0 1.4
14:49 7.6 4.6 81 1008.4 7.6 NW 8.3 0.0 1.4
14:50 7.6 4.6 81 1008.5 5.4 W 8.3 0.0 1.4
14:51 7.6 4.6 81 1008.5 4.5 W 8.3 0.0 1.4
14:52 7.6 4.6 81 1008.8 5.4 W 8.3 0.0 1.4
14:53 7.6 4.6 81 1008.7 4.5 W 8.3 0.0 1.4
14:55 7.6 4.6 81 1008.5 3.8 N 7.6 0.0 1.4
14:56 7.6 4.6 81 1008.6 3.1 W 7.6 0.0 1.4
14:57 7.6 4.6 81 1008.5 5.4 SW 7.6 0.0 1.4
14:58 7.6 4.6 81 1008.8 4.5 W 7.6 0.0 1.4
14:59 7.6 4.6 81 1008.7 3.8 W 7.6 0.0 1.4
15:00 7.6 4.6 81 1008.5 3.1 NW 5.4 0.0 1.4
15:01 7.6 4.6 81 1008.6 3.1 NW 5.4 0.0 1.4
15:02 7.6 4.6 81 1008.6 6.0 W 6.0 0.0 1.4
15:03 7.6 4.6 81 1008.5 4.5 SW 6.0 0.0 1.4
15:04 7.6 4.6 81 1008.5 3.8 W 6.0 0.0 1.4
15:05 7.6 4.6 81 1008.6 4.5 NW 6.0 0.0 1.4
15:06 7.6 4.6 81 1008.7 3.8 SW 6.0 0.0 1.4
15:07 7.6 4.6 81 1008.7 5.4 W 6.0 0.0 1.4
15:09 7.6 4.6 81 1008.6 4.5 W 6.9 0.0 1.4
15:10 7.5 4.5 81 1008.7 5.4 W 6.9 0.0 1.4
15:11 7.5 4.5 81 1008.7 5.4 W 6.9 0.0 1.4
15:12 7.5 4.5 81 1008.7 4.5 W 6.9 0.0 1.4
15:13 7.5 4.5 81 1008.5 3.1 SW 6.9 0.0 1.4
15:14 7.5 4.5 81 1008.6 6.9 SW 6.9 0.0 1.4
15:15 7.5 4.5 81 1008.5 4.5 W 6.9 0.0 1.4
15:16 7.5 4.6 82 1008.6 3.8 W 6.9 0.0 1.4
15:17 7.5 4.6 82 1008.7 5.4 SW 6.9 0.0 1.4
15:18 7.5 4.6 82 1008.5 6.9 SW 6.9 0.0 1.4
15:19 7.5 4.6 82 1008.6 7.6 W 7.6 0.0 1.4
15:20 7.5 4.6 82 1008.5 7.6 W 7.6 0.0 1.4
15:21 7.5 4.6 82 1008.7 4.5 N 7.6 0.0 1.4
15:22 7.5 4.6 82 1008.6 5.4 W 7.6 0.0 1.4
15:23 7.4 5.7 89 1008.6 4.5 W 7.6 0.0 1.4
15:25 7.4 5.7 89 1008.5 4.5 W 7.6 0.0 1.4
15:26 7.4 5.7 89 1008.6 4.5 NW 7.6 0.0 1.4
15:27 7.4 5.7 89 1008.7 6.0 W 7.6 0.0 1.4
15:28 7.4 5.7 89 1008.6 5.4 NW 7.6 0.0 1.4
15:29 7.4 5.7 89 1008.6 3.8 NW 7.6 0.0 1.4
15:30 7.4 5.7 89 1008.6 4.5 W 7.6 0.0 1.4
15:31 7.4 5.7 89 1008.7 4.5 W 6.0 0.0 1.4
15:32 7.4 5.7 89 1008.8 4.5 SW 6.0 0.0 1.4
15:33 7.4 5.7 89 1008.7 4.5 W 6.0 0.0 1.4
15:34 7.4 5.7 89 1008.6 4.5 SW 6.0 0.0 1.4
15:35 7.4 5.7 89 1008.6 4.5 W 6.0 0.0 1.4
15:36 7.4 5.7 89 1008.6 4.5 W 6.0 0.0 1.4
15:37 7.4 5.7 89 1008.6 4.5 NW 5.4 0.0 1.4
15:38 7.4 5.7 89 1008.4 4.5 NW 4.5 0.0 1.4
15:39 7.3 5.6 89 1008.4 3.8 SW 4.5 0.0 1.4
15:41 7.3 5.6 89 1008.7 4.5 W 4.5 0.0 1.4
15:42 7.3 5.6 89 1008.6 4.5 W 4.5 0.0 1.4
15:43 7.3 5.6 89 1008.7 4.5 W 4.5 0.0 1.4
15:44 7.3 5.6 89 1008.5 3.8 W 4.5 0.0 1.4
15:45 7.3 5.6 89 1008.7 4.5 W 4.5 0.0 1.4
15:46 7.3 5.6 89 1008.7 3.8 W 4.5 0.0 1.4
15:47 7.3 5.6 89 1008.7 4.5 W 4.5 0.0 1.4
15:48 7.3 5.6 89 1008.7 6.0 WSW 6.0 0.0 1.4
15:49 7.3 5.6 89 1008.6 4.5 SW 6.0 0.0 1.4
15:50 7.2 5.5 89 1008.6 6.0 W 6.0 0.0 1.4
15:51 7.2 5.5 89 1008.6 3.8 W 6.0 0.0 1.4
15:52 7.2 5.5 89 1009.0 3.8 W 6.0 0.0 1.4
15:53 7.2 5.5 89 1008.7 5.4 W 6.0 0.0 1.4
15:54 7.2 5.5 89 1008.7 6.0 W 6.0 0.0 1.4
15:55 7.2 5.5 89 1008.9 6.9 W 6.9 0.0 1.4
15:57 7.1 5.4 89 1008.7 3.8 W 6.9 0.0 1.4
15:58 7.2 5.5 89 1008.6 3.8 SW 6.9 0.0 1.4
15:59 7.1 5.4 89 1008.7 4.5 SW 6.9 0.0 1.4
16:00 7.1 5.4 89 1008.7 3.8 WSW 6.9 0.0 1.4
16:01 7.1 5.4 89 1008.6 3.8 WSW 6.9 0.0 1.4
16:02 7.1 5.4 89 1008.8 3.8 WSW 6.9 0.0 1.4
16:03 7.1 5.4 89 1008.7 3.8 WSW 6.9 0.0 1.4
16:04 7.1 5.6 90 1008.7 3.8 SW 6.9 0.0 1.4
16:05 7.1 5.6 90 1008.6 3.1 W 6.9 0.0 1.4
16:06 7.1 5.6 90 1008.7 3.1 W 5.4 0.0 1.4
16:07 7.0 5.5 90 1008.8 4.5 S 4.5 0.0 1.4
16:08 7.0 5.5 90 1008.7 4.5 SW 4.5 0.0 1.4
16:09 7.0 5.5 90 1008.5 3.1 W 4.5 0.0 1.4
16:10 7.0 5.5 90 1008.6 3.1 SW 4.5 0.0 1.4
16:12 7.0 5.5 90 1008.6 3.8 SW 4.5 0.0 1.4
16:13 7.0 5.5 90 1008.9 3.8 SW 4.5 0.0 1.4
16:14 7.0 5.5 90 1008.8 3.8 W 4.5 0.0 1.4
16:15 7.0 5.5 90 1008.7 3.8 W 4.5 0.0 1.4
16:16 7.0 5.5 90 1008.8 3.8 W 4.5 0.0 1.4
16:17 7.0 5.5 90 1008.6 2.2 W 4.5 0.0 1.4
16:18 7.0 5.5 90 1008.7 3.8 WSW 4.5 0.0 1.4
16:19 7.0 5.5 90 1008.8 3.8 WSW 3.8 0.0 1.4
16:20 6.9 5.4 90 1008.8 3.8 SW 3.8 0.0 1.4
16:21 6.9 5.4 90 1008.8 3.8 SW 3.8 0.0 1.4
16:22 6.9 5.4 90 1008.8 3.8 SW 3.8 0.0 1.4
16:23 6.9 5.4 90 1008.5 3.8 SW 3.8 0.0 1.4
16:24 6.9 5.4 90 1008.7 3.8 SW 3.8 0.0 1.4
16:25 6.9 5.4 90 1008.8 3.8 SW 3.8 0.0 1.4
16:27 6.9 5.5 91 1008.9 4.5 SW 4.5 0.0 1.4
16:28 6.8 5.4 91 1008.7 3.8 W 4.5 0.0 1.4
16:29 6.8 5.4 91 1008.8 3.8 W 4.5 0.0 1.4
16:30 6.8 5.4 91 1008.8 3.8 W 4.5 0.0 1.4
16:31 6.8 5.4 91 1008.9 3.8 SW 4.5 0.0 1.4
16:32 6.8 5.4 91 1008.8 3.8 SW 4.5 0.0 1.4
16:33 6.8 5.4 91 1008.5 2.2 SW 4.5 0.0 1.4
16:34 6.8 5.4 91 1008.9 3.1 SW 4.5 0.0 1.4
16:35 6.8 5.4 91 1008.8 3.8 SW 4.5 0.0 1.4
16:36 6.8 5.4 91 1008.9 3.8 S 4.5 0.0 1.4
16:37 6.8 5.4 91 1008.7 3.1 SW 3.8 0.0 1.4
16:38 6.7 5.3 91 1008.6 3.1 SW 3.8 0.0 1.4
16:39 6.7 5.3 91 1008.6 3.1 SW 3.8 0.0 1.4
16:40 6.7 5.3 91 1008.9 3.1 W 3.8 0.0 1.4
16:42 6.7 5.3 91 1008.9 3.1 W 3.8 0.0 1.4
16:43 6.7 5.3 91 1008.7 3.1 SW 3.8 0.0 1.4
16:44 6.7 5.3 91 1008.7 3.1 WSW 3.8 0.0 1.4
16:45 6.7 5.3 91 1008.8 3.1 SW 3.8 0.0 1.4
16:46 6.7 5.3 91 1008.8 3.1 W 3.8 0.0 1.4
16:47 6.7 5.3 91 1008.8 2.2 SW 3.1 0.0 1.4
16:48 6.7 5.3 91 1008.9 3.1 SW 3.1 0.0 1.4
16:49 6.7 5.3 91 1008.7 2.2 SW 3.1 0.0 1.4
16:50 6.7 5.3 91 1008.7 2.2 SW 3.1 0.0 1.4
16:51 6.7 5.5 92 1008.8 3.8 W 3.8 0.0 1.4
16:52 6.7 5.5 92 1008.8 3.8 SW 3.8 0.0 1.4
16:53 6.7 5.5 92 1008.9 3.1 W 3.8 0.0 1.4
16:54 6.7 5.5 92 1008.7 4.5 SW 4.5 0.0 1.4
16:55 6.7 5.5 92 1008.7 4.5 SW 4.5 0.0 1.4
16:56 6.7 5.5 92 1008.8 3.8 W 4.5 0.0 1.4
16:57 6.7 5.5 92 1008.7 3.8 SW 4.5 0.0 1.4
16:59 6.7 5.5 92 1008.7 5.4 W 5.4 0.0 1.4
17:00 6.7 5.5 92 1008.7 5.4 W 5.4 0.0 1.4
17:01 6.7 5.5 92 1008.9 5.4 W 5.4 0.0 1.4
17:02 6.7 5.5 92 1008.7 5.4 W 5.4 0.0 1.4
17:03 6.7 5.5 92 1008.8 5.4 W 5.4 0.0 1.4
17:04 6.7 5.5 92 1008.8 5.4 W 5.4 0.0 1.4
17:05 6.7 5.5 92 1008.9 5.4 W 5.4 0.0 1.4
17:06 6.7 5.5 92 1008.8 3.8 SW 5.4 0.0 1.4
17:07 6.7 5.5 92 1008.8 6.0 W 6.0 0.0 1.4
17:08 6.7 5.5 92 1008.8 3.8 SW 6.0 0.0 1.4
17:09 6.7 5.6 93 1008.8 3.8 W 6.0 0.0 1.4
17:10 6.7 5.6 93 1008.8 5.4 W 6.0 0.0 1.4
17:11 6.8 5.7 93 1008.8 3.8 SW 6.0 0.0 1.4
17:12 6.8 5.7 93 1008.7 3.8 W 6.0 0.0 1.4
17:13 6.8 5.7 93 1008.8 3.1 SW 6.0 0.0 1.4
17:14 6.8 5.7 93 1008.9 3.1 SW 6.0 0.0 1.4
17:15 6.8 5.7 93 1008.8 3.1 SW 6.0 0.0 1.4
17:16 6.8 5.7 93 1008.9 4.5 W 6.0 0.0 1.4
17:18 6.8 5.7 93 1008.9 3.8 SW 5.4 0.0 1.4
17:19 6.8 5.7 93 1009.0 3.1 W 5.4 0.0 1.4
17:20 6.8 5.7 93 1008.8 3.1 W 5.4 0.0 1.4
17:21 6.8 5.7 93 1008.8 3.8 SW 4.5 0.0 1.4
17:22 6.8 5.7 93 1008.9 4.5 W 4.5 0.0 1.4
17:23 6.8 5.7 93 1009.0 4.5 W 4.5 0.0 1.4
17:24 6.8 5.7 93 1008.8 3.8 W 4.5 0.0 1.4
17:25 6.8 5.7 93 1008.8 3.8 SW 4.5 0.0 1.4
17:26 6.8 5.7 93 1008.8 3.8 SW 4.5 0.0 1.4
17:27 6.8 5.7 93 1008.7 3.8 WSW 4.5 0.0 1.4
17:28 6.8 5.7 93 1008.9 3.8 W 4.5 0.0 1.4
17:29 6.8 5.7 93 1008.8 3.8 W 4.5 0.0 1.4
17:30 6.8 5.9 94 1009.1 3.8 W 4.5 0.0 1.4
17:31 6.8 5.9 94 1008.9 3.8 W 4.5 0.0 1.4
17:33 6.8 5.9 94 1009.1 3.1 W 4.5 0.0 1.4
17:34 6.8 5.9 94 1009.1 3.8 W 3.8 0.0 1.4
17:35 6.8 5.9 94 1009.0 3.1 W 3.8 0.0 1.4
17:36 6.8 5.9 94 1009.0 3.1 W 3.8 0.0 1.4
17:37 6.8 5.9 94 1009.1 6.0 SW 6.0 0.0 1.4
17:38 6.8 5.9 94 1009.1 3.8 NW 6.0 0.0 1.4
17:39 6.8 5.9 94 1009.2 3.8 W 6.0 0.0 1.4
17:40 6.9 6.0 94 1009.3 3.8 NW 6.0 0.0 1.4
17:41 6.9 6.0 94 1009.1 4.5 NW 6.0 0.0 1.4
17:42 6.9 6.0 94 1009.1 4.5 S 6.0 0.0 1.4
17:43 6.9 6.0 94 1008.9 4.5 W 6.0 0.0 1.4
17:44 6.9 6.0 94 1009.1 4.5 WNW 6.0 0.0 1.4
17:45 6.9 6.0 94 1009.0 4.5 W 6.0 0.0 1.4
17:46 6.9 6.0 94 1009.2 3.1 NW 6.0 0.0 1.4
17:47 6.9 6.0 94 1009.2 5.4 W 5.4 0.0 1.4
17:49 6.9 6.0 94 1009.3 3.8 W 5.4 0.0 1.4
17:50 6.9 6.0 94 1009.1 2.2 NW 5.4 0.0 1.4
17:51 6.9 6.0 94 1009.2 2.2 SW 5.4 0.0 1.4
17:52 6.9 6.0 94 1009.2 4.5 W 5.4 0.0 1.4
17:53 6.9 6.0 94 1009.2 4.5 W 5.4 0.0 1.4
17:54 6.9 6.0 94 1009.1 4.5 W 5.4 0.0 1.4
17:55 6.9 6.0 94 1009.3 4.5 W 5.4 0.0 1.4
17:56 7.0 6.3 95 1009.1 5.4 W 5.4 0.0 1.4
17:57 7.0 6.3 95 1009.2 5.4 NE 5.4 0.0 1.4
17:58 7.0 6.3 95 1009.2 5.4 NE 5.4 0.0 1.4
17:59 7.0 6.3 95 1009.2 6.0 NW 6.0 0.0 1.4
18:00 7.0 6.3 95 1009.2 6.0 NW 6.0 0.0 1.4
18:01 7.0 6.3 95 1009.4 6.0 NW 6.0 0.0 1.4
18:02 7.0 6.3 95 1009.2 6.9 W 6.9 0.0 1.4
18:03 7.0 6.3 95 1009.4 5.4 W 6.9 0.0 1.4
18:04 7.0 6.3 95 1009.3 3.8 W 6.9 0.0 1.4
18:06 7.0 6.3 95 1009.1 5.4 W 6.9 0.0 1.4
18:07 7.0 6.3 95 1009.2 5.4 W 6.9 0.0 1.4
18:08 7.1 6.4 95 1009.2 4.5 NW 6.9 0.0 1.4
18:09 7.1 6.4 95 1009.3 3.8 W 6.9 0.0 1.4
18:10 7.1 6.4 95 1009.4 3.8 W 6.9 0.0 1.4
18:11 7.1 6.4 95 1009.5 3.1 SW 6.9 0.0 1.4
18:12 7.1 6.4 95 1009.3 3.1 W 6.9 0.0 1.4
18:13 7.1 6.4 95 1009.3 4.5 W 5.4 0.0 1.4
18:14 7.1 6.4 95 1009.5 3.8 W 5.4 0.0 1.4
18:15 7.1 6.4 95 1009.3 4.5 NW 5.4 0.0 1.4
18:16 7.1 6.4 95 1009.3 3.1 NW 5.4 0.8 1.4
18:17 7.1 6.4 95 1009.5 4.5 NE 4.5 0.8 1.4
18:18 7.1 6.4 95 1009.4 4.5 W 4.5 0.8 1.4
18:19 7.2 6.5 95 1009.5 3.1 NW 4.5 0.8 1.4
18:21 7.2 6.6 96 1009.1 5.4 W 5.4 0.0 1.4
18:22 7.2 6.6 96 1009.3 4.5 SW 5.4 0.0 1.4
18:23 7.2 6.6 96 1009.5 4.5 SW 5.4 0.0 1.4
18:24 7.2 6.6 96 1009.3 3.8 SW 5.4 0.0 1.4
18:25 7.2 6.6 96 1009.3 3.8 NW 5.4 0.8 1.5
18:26 7.2 6.6 96 1009.4 4.5 N 5.4 0.8 1.5
18:27 7.2 6.6 96 1009.6 4.5 NW 5.4 0.8 1.5
18:28 7.2 6.6 96 1009.4 3.1 W 5.4 0.8 1.5
18:29 7.3 6.7 96 1009.2 3.1 W 5.4 0.8 1.5
18:30 7.3 6.7 96 1009.2 3.1 W 5.4 0.0 1.5
18:31 7.3 6.7 96 1009.3 3.1 NW 5.4 0.0 1.5
18:32 7.3 6.7 96 1009.4 3.1 W 4.5 0.0 1.5
18:33 7.3 6.7 96 1009.3 4.5 NW 4.5 0.0 1.5
18:34 7.3 6.7 96 1009.4 3.1 WNW 4.5 0.0 1.5
18:36 7.3 6.7 96 1009.3 3.8 W 4.5 0.0 1.5
18:37 7.3 6.7 96 1009.5 3.1 W 4.5 0.0 1.5
18:38 7.3 6.7 96 1009.4 3.8 W 4.5 0.0 1.5
18:39 7.3 6.7 96 1009.4 3.1 W 4.5 0.0 1.5
18:40 7.3 6.7 96 1009.4 3.1 W 4.5 0.0 1.5
18:41 7.3 6.7 96 1009.4 3.1 W 5.4 0.0 1.6
18:42 7.3 6.7 96 1009.3 3.1 W 5.4 0.8 1.6
18:43 7.3 6.7 96 1009.4 3.1 W 5.4 0.8 1.6
18:44 7.3 6.7 96 1009.5 3.1 W 5.4 1.5 1.6
18:45 7.3 6.7 96 1009.2 3.8 W 5.4 1.5 1.7
18:46 7.4 6.8 96 1009.1 3.1 SW 5.4 2.3 1.8
18:47 7.4 6.8 96 1009.4 2.2 W 5.4 2.3 1.8
18:48 7.4 6.8 96 1009.3 2.2 W 5.4 2.3 1.8
18:49 7.4 6.8 96 1009.4 3.1 W 5.4 1.5 1.8
18:50 7.4 6.8 96 1009.4 3.1 NW 5.4 1.5 1.8
18:52 7.4 6.8 96 1009.1 4.5 W 4.5 0.0 1.8
18:53 7.4 6.8 96 1009.2 3.1 W 4.5 0.0 1.8
18:54 7.4 7.0 97 1009.3 3.1 W 4.5 0.0 1.8
18:55 7.4 7.0 97 1009.5 3.1 W 4.5 0.0 1.8
18:56 7.4 7.0 97 1009.2 3.1 NE 4.5 0.8 1.8
18:57 7.4 7.0 97 1009.3 2.2 NW 4.5 0.8 1.8
18:58 7.4 7.0 97 1009.7 3.8 WNW 4.5 0.8 1.8
18:59 7.4 7.0 97 1009.5 3.8 NW 4.5 0.8 1.8
19:00 7.4 7.0 97 1009.2 2.2 NW 4.5 0.8 1.8
19:01 7.4 7.0 97 1009.4 2.2 NW 4.5 0.0 1.8
19:02 7.4 7.0 97 1009.4 2.2 NW 4.5 0.0 1.8
19:03 7.4 7.0 97 1009.4 2.2 NW 3.8 0.0 1.8
19:04 7.4 7.0 97 1009.4 2.2 NW 3.8 0.0 1.8
19:05 7.4 7.0 97 1009.4 2.2 NW 3.8 0.0 1.8
19:07 7.6 6.2 91 1009.3 4.5 NW 4.5 0.8 2.0
19:08 7.6 6.2 91 1009.1 4.5 W 4.5 1.5 2.0
19:09 7.6 6.4 92 1009.4 4.5 W 4.5 2.3 2.0
19:10 7.6 6.4 92 1009.4 4.5 NW 4.5 2.3 2.0
19:11 7.6 6.4 92 1009.1 3.8 W 4.5 2.3 2.0
19:12 7.6 6.4 92 1009.2 3.1 W 4.5 1.5 2.0
19:13 7.6 6.4 92 1009.2 3.8 NW 4.5 0.8 2.0
19:14 7.7 6.5 92 1009.4 3.1 W 4.5 0.0 2.0
19:15 7.7 6.5 92 1009.4 1.6 W 4.5 0.0 2.0
19:16 7.7 6.5 92 1009.4 7.6 WNW 7.6 0.0 2.0
19:17 7.7 6.5 92 1009.4 6.9 WNW 7.6 0.0 2.0
19:18 7.7 6.5 92 1009.5 6.0 NW 7.6 0.0 2.0
19:19 7.7 6.5 92 1009.5 5.4 N 7.6 0.0 2.0
19:20 7.7 6.5 92 1009.6 4.5 NE 7.6 0.0 2.0
19:21 7.7 6.5 92 1009.5 6.0 WNW 7.6 0.0 2.0
19:22 7.8 6.6 92 1009.5 3.8 NW 7.6 0.0 2.0
19:24 7.8 6.6 92 1009.4 3.1 W 7.6 0.0 2.0
19:25 7.8 6.6 92 1009.6 5.4 NE 7.6 0.0 2.0
19:26 7.8 6.6 92 1009.5 6.0 NW 7.6 0.0 2.0
19:27 7.8 6.6 92 1009.6 6.0 NW 6.9 0.0 2.0
19:28 7.8 6.6 92 1009.6 4.5 W 6.9 0.0 2.0
19:29 7.8 6.6 92 1009.7 5.4 WNW 6.9 0.0 2.0
19:30 7.8 6.6 92 1009.5 4.5 NW 6.9 0.0 2.0
19:31 7.8 6.6 92 1009.6 6.9 NW 6.9 0.0 2.0
19:32 7.7 6.5 92 1009.4 4.5 N 6.9 0.0 2.0
19:33 7.7 6.5 92 1009.4 6.9 NW 6.9 0.0 2.0
19:34 7.7 6.5 92 1009.5 6.9 NW 6.9 0.0 2.0
19:35 7.7 6.5 92 1009.3 6.0 NW 6.9 0.0 2.0
19:36 7.7 6.5 92 1009.4 6.0 WNW 6.9 0.0 2.0
19:38 7.7 6.5 92 1009.4 3.8 NNE 6.9 0.0 2.0
19:39 7.7 6.5 92 1009.4 3.8 NW 6.9 0.0 2.0
19:40 7.7 6.5 92 1009.4 3.1 NW 6.9 0.0 2.0
19:41 7.7 6.5 92 1009.5 5.4 NW 6.9 0.0 2.0
19:42 7.7 6.5 92 1009.3 3.8 NW 6.9 0.0 2.0
19:43 7.7 6.5 92 1009.4 4.5 NW 6.9 0.0 2.0
19:44 7.7 6.5 92 1009.4 3.1 NE 6.9 0.0 2.0
19:45 7.7 6.5 92 1009.4 3.8 N 6.0 0.0 2.0
19:46 7.7 6.5 92 1009.5 3.1 W 6.0 0.0 2.0
19:47 7.7 6.5 92 1009.8 3.1 NW 5.4 0.0 2.0
19:48 7.8 6.6 92 1009.6 2.2 W 5.4 0.0 2.0
19:49 7.8 6.6 92 1009.5 2.2 N 5.4 0.0 2.0
19:50 7.8 6.6 92 1009.5 2.2 NW 5.4 0.0 2.0
19:52 7.8 6.6 92 1009.6 3.8 W 4.5 0.0 2.0
19:53 7.8 6.6 92 1009.6 3.1 NW 4.5 0.0 2.0
19:54 7.8 6.6 92 1009.5 3.1 NW 3.8 0.0 2.0
19:55 7.8 6.6 92 1009.6 3.1 WNW 3.8 0.0 2.0
19:56 7.8 6.6 92 1009.6 3.1 WNW 3.8 0.0 2.0
19:57 7.8 6.6 92 1009.6 4.5 N 6.0 0.0 2.0
19:58 7.8 6.6 92 1009.6 3.8 NW 6.0 0.0 2.0
19:59 7.8 6.6 92 1009.5 2.2 W 6.0 0.0 2.0
20:00 7.8 6.6 92 1009.5 4.5 N 6.0 0.0 2.0
20:01 7.8 6.6 92 1009.5 2.2 N 6.0 0.0 2.0
20:02 7.8 6.6 92 1009.6 3.1 NW 6.0 0.0 2.0
20:03 7.8 6.6 92 1009.6 4.5 NW 6.0 0.0 2.0
20:04 7.8 6.6 92 1009.5 3.8 NW 6.0 0.0 2.0
20:05 7.8 6.6 92 1009.6 3.8 NW 6.0 0.0 2.0
20:06 7.8 6.6 92 1009.5 3.1 NW 6.0 0.0 2.0
20:08 7.8 6.6 92 1009.8 3.1 W 4.5 0.0 2.0
20:09 7.8 6.6 92 1009.6 6.0 W 6.0 0.0 2.0
20:10 7.8 6.6 92 1009.5 6.0 W 6.0 0.0 2.0
20:11 7.8 6.6 92 1009.6 4.5 SW 6.0 0.0 2.0
20:12 7.8 6.6 92 1009.7 6.0 NW 6.0 0.8 2.1
20:13 7.8 6.6 92 1009.6 3.8 N 6.0 1.5 2.1
20:14 7.8 6.6 92 1009.7 7.6 N 7.6 1.5 2.3
20:15 7.8 6.6 92 1009.9 8.3 N 8.3 3.0 2.3
20:16 7.8 6.6 92 1009.8 3.1 NW 8.3 3.8 2.3
20:17 7.8 6.6 92 1009.7 6.9 NW 8.3 3.0 2.4
20:18 7.8 6.6 92 1009.8 6.0 N 8.3 3.0 2.4
20:19 7.9 6.7 92 1009.9 7.6 N 8.3 3.0 2.5
20:20 7.9 6.7 92 1010.1 7.6 N 8.3 2.3 2.5
20:23 7.9 6.7 92 1009.9 5.4 N 8.3 2.3 2.6
20:24 7.9 6.7 92 1009.8 6.0 W 8.3 3.0 2.6
20:25 7.9 6.8 93 1009.9 6.9 NW 8.3 2.3 2.6
20:26 7.9 6.8 93 1010.0 6.9 W 8.3 1.5 2.6
20:27 7.9 6.8 93 1010.1 6.9 N 7.6 0.8 2.6
20:28 7.9 6.8 93 1010.0 6.9 S 7.6 0.8 2.6
20:29 8.0 6.9 93 1010.0 4.5 NW 7.6 0.0 2.6
20:30 8.0 6.9 93 1010.0 6.0 S 7.6 0.0 2.6
20:31 8.0 6.9 93 1010.1 7.6 NW 7.6 0.0 2.6
20:32 8.0 6.9 93 1010.0 7.6 NW 7.6 0.0 2.6
20:33 8.0 6.9 93 1010.2 7.6 NW 7.6 0.0 2.6
20:34 8.0 6.9 93 1010.1 6.0 N 7.6 0.0 2.6
20:35 8.0 6.9 93 1010.2 8.3 NE 10.7 0.0 2.7
20:37 8.0 6.9 93 1010.1 7.6 N 10.7 0.8 2.7
20:38 8.1 7.0 93 1009.9 11.4 N 11.4 0.8 2.7
20:39 8.1 7.0 93 1010.1 7.6 N 11.4 0.8 2.7
20:40 8.1 7.0 93 1010.0 7.6 N 11.4 0.8 2.7
20:41 8.1 7.0 93 1010.0 7.6 N 11.4 0.0 2.7
20:42 8.1 7.0 93 1010.0 6.0 N 11.4 0.0 2.7
20:43 8.1 7.0 93 1010.1 7.6 N 11.4 0.0 2.7
20:44 8.1 7.0 93 1010.2 8.3 NW 11.4 0.0 2.7
20:45 8.1 7.0 93 1010.2 5.4 N 11.4 0.0 2.7
20:46 8.1 7.0 93 1009.9 5.4 N 11.4 0.0 2.7
20:47 8.0 6.9 93 1010.1 8.3 W 11.4 0.0 2.7
20:48 8.0 6.9 93 1010.0 6.0 E 11.4 0.0 2.7
20:49 8.0 6.9 93 1009.9 6.9 NE 11.4 0.0 2.7
20:51 8.0 6.9 93 1010.1 5.4 NW 9.2 0.0 2.7
20:52 8.0 6.9 93 1010.1 5.4 NW 9.2 0.0 2.7
20:53 8.0 6.9 93 1010.2 4.5 NW 9.2 0.0 2.7
20:54 8.0 6.9 93 1010.1 5.4 S 9.2 0.0 2.7
20:55 8.0 6.9 93 1010.3 6.0 E 9.2 0.0 2.7
20:56 7.9 6.8 93 1010.1 5.4 N 9.2 0.0 2.7
20:57 7.9 6.8 93 1010.2 3.8 N 9.2 0.0 2.7
20:58 7.9 6.8 93 1010.1 5.4 N 8.3 0.0 2.7
20:59 7.9 6.8 93 1010.4 6.0 N 7.6 0.0 2.7
21:00 7.9 6.8 93 1010.2 6.0 N 7.6 0.0 2.7
21:01 7.9 6.8 93 1010.3 6.0 N 6.0 0.0 2.7
21:02 7.9 6.8 93 1010.2 6.0 N 6.0 0.0 2.7
21:03 7.9 6.8 93 1010.3 6.0 N 6.0 0.0 2.7
21:04 7.9 6.8 93 1010.4 6.0 N 6.0 0.0 2.7
21:06 7.9 6.8 93 1010.4 6.0 N 6.0 0.0 2.7
21:07 7.9 6.8 93 1010.6 6.0 N 6.0 0.0 2.7
21:08 7.9 6.8 93 1010.4 6.0 N 6.0 0.0 2.7
21:09 7.7 6.5 92 1010.4 4.5 NW 6.0 0.0 2.7
21:10 7.6 6.4 92 1010.5 4.5 NE 6.0 0.0 2.7
21:11 7.6 6.4 92 1010.5 3.8 W 6.0 0.0 2.7
21:12 7.6 6.4 92 1010.3 3.8 N 6.0 0.0 2.7
21:13 7.5 6.3 92 1010.4 3.8 N 6.0 0.0 2.7
21:14 7.5 6.3 92 1010.5 3.8 SW 6.0 0.0 2.7
21:15 7.5 6.3 92 1010.5 5.4 N 6.0 0.0 2.7
21:16 7.5 6.3 92 1010.4 6.0 N 6.0 0.0 2.7
21:17 7.4 7.1 98 1010.5 3.8 NW 6.0 0.0 2.7
21:18 7.4 7.1 98 1010.3 3.1 N 6.0 0.0 2.7
21:19 7.4 7.1 98 1010.2 2.2 NE 6.0 0.0 2.7
21:21 7.4 7.1 98 1010.4 2.2 N 6.0 0.0 2.7
21:22 7.3 7.0 98 1010.5 2.2 N 6.0 0.0 2.7
21:23 7.3 7.0 98 1010.2 3.8 W 6.0 0.0 2.7
21:24 7.3 7.0 98 1010.5 4.5 W 6.0 0.0 2.7
21:25 7.3 7.0 98 1010.3 3.8 NE 6.0 0.0 2.7
21:26 7.3 6.9 97 1010.3 3.8 W 6.0 0.0 2.7
21:27 7.2 6.8 97 1010.3 3.8 N 4.5 0.0 2.7
21:28 7.2 6.8 97 1010.3 6.0 NE 6.0 0.0 2.7
21:29 7.2 6.8 97 1010.3 3.1 NE 6.0 0.0 2.7
21:30 7.2 6.8 97 1010.4 3.1 N 6.0 0.0 2.7
21:31 7.1 6.7 97 1010.2 3.1 NE 6.0 0.0 2.7
21:32 7.1 6.7 97 1010.5 3.1 S 6.0 0.0 2.7
21:33 7.1 6.7 97 1010.5 4.5 NW 6.0 0.0 2.7
21:34 7.1 6.7 97 1010.3 2.2 NW 6.0 0.0 2.7
21:36 7.0 6.6 97 1010.4 2.2 NW 6.0 0.0 2.7
21:37 7.0 6.6 97 1010.5 1.6 NW 6.0 0.0 2.7
21:38 7.0 6.6 97 1010.4 1.6 NW 6.0 0.0 2.7
21:39 7.0 6.6 97 1010.4 0.7 NW 4.5 0.0 2.7
21:40 7.0 6.6 97 1010.4 0.7 NW 4.5 0.0 2.7
21:41 6.9 6.5 97 1010.5 1.6 NW 4.5 0.0 2.7
21:42 6.9 6.5 97 1010.5 1.6 W 4.5 0.0 2.7
21:43 6.9 6.5 97 1010.6 1.6 NW 4.5 0.0 2.7
21:44 6.9 6.5 97 1010.6 2.2 NW 3.1 0.0 2.7
21:45 6.9 6.5 97 1010.6 1.6 W 3.1 0.0 2.7
21:46 6.9 6.3 96 1010.5 2.2 N 2.2 0.0 2.7
21:47 6.9 6.3 96 1010.7 0.7 NW 3.1 0.0 2.7
21:48 6.9 6.3 96 1010.7 0.7 N 3.1 0.0 2.7
21:49 6.9 6.3 96 1010.8 3.1 N 3.1 0.0 2.7
21:50 6.9 6.3 96 1010.6 1.6 N 3.1 0.0 2.7
21:52 6.9 6.3 96 1010.8 4.5 W 4.5 0.0 2.7
21:53 6.9 6.3 96 1010.7 5.4 N 5.4 0.0 2.7
21:54 6.9 6.3 96 1010.6 5.4 SW 5.4 0.0 2.7
21:55 6.9 6.3 96 1010.7 3.1 NW 5.4 0.0 2.7
21:56 7.0 6.4 96 1011.0 3.8 NNW 5.4 0.0 2.7
21:57 7.0 6.4 96 1010.9 4.5 WNW 6.9 0.0 2.7
21:58 7.0 6.4 96 1011.0 4.5 N 6.9 0.0 2.7
21:59 7.1 6.5 96 1010.9 4.5 NE 6.9 0.0 2.7
22:00 7.1 6.7 97 1010.8 6.0 NNE 6.9 0.0 2.7
22:01 7.1 6.7 97 1010.9 4.5 N 6.9 0.0 2.7
22:02 7.2 6.8 97 1010.9 6.0 NW 6.9 0.0 2.7
22:03 7.2 6.8 97 1010.7 8.3 E 8.3 0.0 2.7
22:04 7.2 6.8 97 1010.6 6.9 NE 8.3 0.0 2.7
22:05 7.2 6.8 97 1010.9 6.9 NE 8.3 0.0 2.7
22:06 7.2 6.8 97 1011.0 5.4 N 8.3 0.0 2.8
22:07 7.3 6.9 97 1010.8 6.0 N 8.3 0.8 2.8
22:08 7.3 6.9 97 1010.9 5.4 NE 8.3 0.8 2.8
22:10 7.3 6.9 97 1011.0 3.8 N 8.3 0.8 2.8
22:11 7.3 6.9 97 1010.9 3.8 NE 8.3 0.8 2.8
22:12 7.3 6.9 97 1010.9 5.4 NE 8.3 0.0 2.8
22:13 7.3 6.9 97 1011.1 3.8 NE 8.3 0.0 2.8
22:14 7.3 6.9 97 1011.0 4.5 N 8.3 0.0 2.8
22:15 7.3 6.9 97 1011.0 4.5 N 6.9 0.0 2.8
22:16 7.3 6.7 96 1010.9 4.5 E 6.0 0.0 2.8
22:17 7.3 6.7 96 1011.0 6.9 NE 6.9 0.0 2.8
22:18 7.3 6.7 96 1011.1 6.9 NE 6.9 0.0 2.8
22:19 7.3 6.7 96 1011.1 4.5 SW 6.9 0.0 2.8
22:20 7.3 6.7 96 1011.2 4.5 NNW 6.9 0.0 2.8
22:21 7.3 6.7 96 1011.2 9.8 NE 9.8 0.0 2.8
22:22 7.3 6.7 96 1011.3 6.9 NW 9.8 0.0 2.8
22:23 7.3 6.7 96 1011.0 7.6 NE 10.7 0.0 2.8
22:24 7.3 6.7 96 1011.1 6.0 NW 10.7 0.0 2.8
22:25 7.3 6.7 96 1011.0 5.4 N 10.7 0.0 2.8
22:27 7.3 6.7 96 1011.0 5.4 NNE 10.7 0.0 2.8
22:28 7.3 6.7 96 1011.0 5.4 NNE 10.7 0.0 2.8
22:29 7.3 6.7 96 1011.2 3.1 N 10.7 0.0 2.8
22:30 7.3 6.6 95 1011.1 3.8 SE 10.7 0.0 2.8
22:31 7.3 6.6 95 1011.2 5.4 N 10.7 0.0 2.8
22:32 7.3 6.6 95 1010.9 4.5 N 10.7 0.0 2.8
22:33 7.2 6.5 95 1011.2 3.8 N 10.7 0.0 2.8
22:34 7.2 6.5 95 1011.2 3.8 NE 7.6 0.0 2.8
22:35 7.2 6.5 95 1011.1 4.5 N 7.6 0.0 2.8
22:36 7.2 6.5 95 1011.1 4.5 NW 7.6 0.0 2.8
22:37 7.1 6.2 94 1011.2 2.2 S 5.4 0.0 2.8
22:38 7.1 6.2 94 1011.1 5.4 NW 5.4 0.0 2.8
22:39 7.0 6.1 94 1011.2 6.0 NE 6.0 0.0 2.8
22:40 7.0 6.1 94 1011.2 4.5 NE 6.0 0.0 2.8
22:41 7.0 5.9 93 1010.9 4.5 E 6.0 0.0 2.8
22:42 7.0 5.9 93 1011.0 5.4 N 6.0 0.0 2.8
22:43 6.9 5.8 93 1011.2 3.1 NW 6.0 0.0 2.8
22:45 6.9 5.8 93 1011.4 3.1 N 6.0 0.0 2.8
22:46 6.9 5.8 93 1011.3 3.1 N 6.0 0.0 2.8
22:47 6.8 5.7 93 1011.2 2.2 W 6.0 0.0 2.8
22:48 6.8 5.6 92 1011.2 3.1 SE 6.0 0.0 2.8
22:49 6.7 5.5 92 1011.4 2.2 N 6.0 0.0 2.8
22:50 6.7 5.5 92 1011.4 3.8 NW 6.0 0.0 2.8
22:51 6.7 5.5 92 1011.2 4.5 E 5.4 0.0 2.8
22:52 6.7 5.5 92 1011.2 4.5 E 5.4 0.0 2.8
22:53 6.6 5.4 92 1011.3 5.4 N 5.4 0.0 2.8
22:54 6.6 5.2 91 1011.2 6.0 NW 6.0 0.0 2.8
22:55 6.5 5.1 91 1011.1 6.9 N 6.9 0.0 2.8
22:56 6.5 5.1 91 1011.3 5.4 N 6.9 0.0 2.8
22:57 6.5 5.1 91 1011.2 6.9 N 6.9 0.0 2.8
22:58 6.5 5.1 91 1011.4 7.6 N 7.6 0.0 2.8
22:59 6.4 5.0 91 1011.2 6.0 N 7.6 0.0 2.8
23:00 6.4 5.0 91 1011.3 6.0 N 7.6 0.0 2.8
23:01 6.4 5.0 91 1011.3 6.0 N 7.6 0.0 2.8
23:03 6.4 5.0 91 1011.3 6.0 N 7.6 0.0 2.8
23:04 6.4 5.0 91 1011.2 6.0 N 7.6 0.0 2.8
23:05 6.4 5.0 91 1011.1 6.0 N 7.6 0.0 2.8
23:06 6.4 5.0 91 1011.4 6.0 N 7.6 0.0 2.8
23:07 6.5 5.1 91 1011.4 5.4 E 7.6 0.0 2.8
23:08 6.5 5.1 91 1011.4 5.4 NE 7.6 0.0 2.8
23:09 6.5 5.1 91 1011.3 7.6 N 7.6 0.0 2.8
23:10 6.5 5.1 91 1011.6 7.6 N 7.6 0.0 2.8
23:11 6.5 5.1 91 1011.5 8.3 N 8.3 0.0 2.8
23:12 6.5 5.1 91 1011.5 3.1 NW 8.3 0.0 2.8
23:13 6.5 5.1 91 1011.5 4.5 N 8.3 0.0 2.8
23:14 6.5 5.1 91 1011.6 6.0 N 8.3 0.0 2.8
23:15 6.5 5.1 91 1011.6 3.8 NW 8.3 0.0 2.8
23:16 6.4 5.0 91 1011.6 4.5 NE 8.3 0.0 2.8
23:17 6.4 5.0 91 1011.6 4.5 N 8.3 0.0 2.8
23:18 6.4 5.0 91 1011.6 5.4 NW 8.3 0.0 2.8
23:19 6.4 5.0 91 1011.7 4.5 NE 8.3 0.0 2.8
23:21 6.4 5.0 91 1011.6 8.3 NE 8.3 0.0 2.8
23:22 6.4 5.0 91 1011.6 6.0 NE 8.3 0.0 2.8
23:23 6.4 5.0 91 1011.8 4.5 NE 8.3 0.0 2.8
23:24 6.4 5.0 91 1011.6 3.1 S 8.3 0.0 2.8
23:25 6.4 5.0 91 1011.6 3.8 NW 8.3 0.0 2.8
23:26 6.4 5.0 91 1011.5 7.6 NE 8.3 0.0 2.8
23:27 6.4 5.0 91 1011.5 6.9 NE 8.3 0.0 2.8
23:28 6.4 5.0 91 1011.6 6.0 SE 8.3 0.0 2.8
23:29 6.4 5.0 91 1011.8 9.8 W 9.8 0.0 2.8
23:30 6.4 5.0 91 1011.7 12.1 N 12.1 0.0 2.8
23:31 6.4 5.0 91 1011.7 4.5 NW 12.1 0.0 2.8
23:32 6.4 5.0 91 1011.6 5.4 E 12.1 0.0 2.8
23:33 6.4 5.0 91 1011.5 5.4 W 12.1 0.0 2.8
23:34 6.4 5.0 91 1011.8 5.4 W 12.1 0.0 2.8
23:35 6.4 4.9 90 1011.8 6.9 NE 12.1 0.0 2.8
23:36 6.4 4.9 90 1011.8 6.9 NE 12.1 0.0 2.8
23:38 6.4 4.9 90 1011.5 6.9 W 12.1 0.0 2.8
23:39 6.3 4.8 90 1011.7 4.5 NNW 12.1 0.0 2.8
23:40 6.3 4.8 90 1011.6 4.5 N 12.1 0.0 2.8
23:41 6.3 4.8 90 1011.6 3.1 N 6.9 0.0 2.8
23:42 6.3 4.8 90 1011.6 4.5 N 6.9 0.0 2.8
23:43 6.3 4.8 90 1011.7 4.5 N 6.9 0.0 2.8
23:44 6.3 4.8 90 1011.5 5.4 W 6.9 0.0 2.8
23:45 6.3 4.8 90 1011.9 5.4 NW 6.9 0.0 2.8
23:46 6.2 4.7 90 1011.8 5.4 NE 6.9 0.0 2.8
23:47 6.2 4.7 90 1011.9 3.1 SE 6.9 0.0 2.8
23:48 6.2 4.7 90 1011.9 3.8 NE 6.9 0.0 2.8
23:49 6.2 4.7 90 1012.1 3.8 E 5.4 0.0 2.8
23:50 6.2 4.7 90 1012.1 5.4 NW 5.4 0.0 2.8
23:51 6.1 4.6 90 1011.9 3.1 N 5.4 0.0 2.8
23:52 6.1 4.6 90 1011.9 4.5 NE 5.4 0.0 2.8
23:53 6.1 4.6 90 1012.0 2.2 NE 5.4 0.0 2.8
23:55 6.0 4.5 90 1011.8 5.4 NW 5.4 0.0 2.8
23:56 6.0 4.5 90 1011.8 5.4 NW 5.4 0.0 2.8
23:57 6.0 4.5 90 1011.9 3.8 N 5.4 0.0 2.8
23:58 6.0 4.3 89 1011.8 5.4 N 5.4 0.0 2.8
23:59 6.0 4.3 89 1011.8 5.4 N 5.4 0.0 2.8

 

 

UK - WEATHER STATION TOPSITES - UK World Weather Websites

Copyright © Carnkie Weather 2009 - 2022.